Time,TemperatureF,DewpointF,PressureIn,WindDirection,WindDirectionDegrees,WindSpeedMPH,WindSpeedGustMPH,Humidity,HourlyPrecipIn,Conditions,Clouds,dailyrainin,SolarRadiationWatts/m^2,SoftwareType,DateUTC
2013-10-06 00:00:00,40.2,34.5,29.91,West,264,6.0,17.0,80,0.00,,,0.00,0,WeatherCatV1.21B27,2013-10-06 05:00:00,
2013-10-06 00:02:00,40.2,34.5,29.91,WSW,238,5.0,16.0,80,0.00,,,0.00,0,WeatherCatV1.21B27,2013-10-06 05:02:00,
2013-10-06 00:03:00,40.2,34.5,29.91,West,264,4.0,16.0,80,0.00,,,0.00,0,WeatherCatV1.21B27,2013-10-06 05:03:00,
2013-10-06 00:04:00,40.2,34.5,29.91,NW,306,5.0,19.0,80,0.00,,,0.00,0,WeatherCatV1.21B27,2013-10-06 05:04:00,
2013-10-06 00:05:00,40.2,34.5,29.91,WNW,296,5.0,15.0,80,0.00,,,0.00,0,WeatherCatV1.21B27,2013-10-06 05:05:00,
2013-10-06 00:07:00,40.3,34.6,29.91,NNW,338,3.0,16.0,80,0.00,,,0.00,0,WeatherCatV1.21B27,2013-10-06 05:07:00,
2013-10-06 00:08:00,40.3,34.6,29.91,NNW,337,1.0,16.0,80,0.00,,,0.00,0,WeatherCatV1.21B27,2013-10-06 05:08:00,
2013-10-06 00:09:00,40.3,34.6,29.91,West,261,11.0,19.0,80,0.00,,,0.00,0,WeatherCatV1.21B27,2013-10-06 05:09:00,
2013-10-06 00:10:00,40.3,34.6,29.91,WNW,296,10.0,19.0,80,0.00,,,0.00,0,WeatherCatV1.21B27,2013-10-06 05:10:00,
2013-10-06 00:13:00,40.3,34.6,29.91,West,276,6.0,12.0,80,0.00,,,0.00,0,WeatherCatV1.21B27,2013-10-06 05:13:00,
2013-10-06 00:14:00,40.3,34.6,29.91,WNW,298,7.0,14.0,80,0.00,,,0.00,0,WeatherCatV1.21B27,2013-10-06 05:14:00,
2013-10-06 00:15:00,40.3,34.6,29.90,NNW,330,10.0,15.0,80,0.00,,,0.00,0,WeatherCatV1.21B27,2013-10-06 05:15:00,
2013-10-06 00:16:00,40.3,34.6,29.90,NNW,342,2.0,15.0,80,0.00,,,0.00,0,WeatherCatV1.21B27,2013-10-06 05:16:00,
2013-10-06 00:18:00,40.3,34.6,29.91,West,269,3.0,9.0,80,0.00,,,0.00,0,WeatherCatV1.21B27,2013-10-06 05:18:00,
2013-10-06 00:19:00,40.3,34.6,29.91,West,273,2.0,9.0,80,0.00,,,0.00,0,WeatherCatV1.21B27,2013-10-06 05:19:00,
2013-10-06 00:20:00,40.3,34.6,29.91,West,277,2.0,7.0,80,0.00,,,0.00,0,WeatherCatV1.21B27,2013-10-06 05:20:00,
2013-10-06 00:21:00,40.3,34.6,29.91,West,265,5.0,13.0,80,0.00,,,0.00,0,WeatherCatV1.21B27,2013-10-06 05:21:00,
2013-10-06 00:23:00,40.3,34.6,29.91,WNW,296,2.0,11.0,80,0.00,,,0.00,0,WeatherCatV1.21B27,2013-10-06 05:23:00,
2013-10-06 00:24:00,40.3,34.6,29.91,NNW,342,5.0,7.0,80,0.00,,,0.00,0,WeatherCatV1.21B27,2013-10-06 05:24:00,
2013-10-06 00:25:00,40.2,34.5,29.91,WNW,287,3.0,11.0,80,0.00,,,0.00,0,WeatherCatV1.21B27,2013-10-06 05:25:00,
2013-10-06 00:26:00,40.2,34.5,29.91,WNW,294,11.0,15.0,80,0.00,,,0.00,0,WeatherCatV1.21B27,2013-10-06 05:26:00,
2013-10-06 00:27:00,40.2,34.5,29.91,WSW,239,12.0,15.0,80,0.00,,,0.00,0,WeatherCatV1.21B27,2013-10-06 05:27:00,
2013-10-06 00:28:00,40.2,34.5,29.90,West,272,4.0,15.0,80,0.00,,,0.00,0,WeatherCatV1.21B27,2013-10-06 05:28:00,
2013-10-06 00:29:00,40.2,34.5,29.90,West,264,11.0,12.0,80,0.00,,,0.00,0,WeatherCatV1.21B27,2013-10-06 05:29:00,
2013-10-06 00:30:00,40.2,34.5,29.90,NNW,331,0.0,11.0,80,0.00,,,0.00,0,WeatherCatV1.21B27,2013-10-06 05:30:00,
2013-10-06 00:31:00,40.2,34.5,29.90,NNW,340,10.0,11.0,80,0.00,,,0.00,0,WeatherCatV1.21B27,2013-10-06 05:31:00,
2013-10-06 00:32:00,40.2,34.5,29.91,NNW,343,16.0,16.0,80,0.00,,,0.00,0,WeatherCatV1.21B27,2013-10-06 05:32:00,
2013-10-06 00:33:00,40.2,34.5,29.91,WSW,248,3.0,16.0,80,0.00,,,0.00,0,WeatherCatV1.21B27,2013-10-06 05:33:00,
2013-10-06 00:34:00,40.2,34.5,29.91,WSW,250,1.0,16.0,80,0.00,,,0.00,0,WeatherCatV1.21B27,2013-10-06 05:34:00,
2013-10-06 00:35:00,40.3,34.6,29.91,NNW,342,1.0,10.0,80,0.00,,,0.00,0,WeatherCatV1.21B27,2013-10-06 05:35:00,
2013-10-06 00:36:00,40.3,34.6,29.91,NW,306,4.0,13.0,80,0.00,,,0.00,0,WeatherCatV1.21B27,2013-10-06 05:36:00,
2013-10-06 00:37:00,40.3,34.6,29.91,NNW,333,16.0,16.0,80,0.00,,,0.00,0,WeatherCatV1.21B27,2013-10-06 05:37:00,
2013-10-06 00:38:00,40.3,34.6,29.91,NNW,345,10.0,16.0,80,0.00,,,0.00,0,WeatherCatV1.21B27,2013-10-06 05:38:00,
2013-10-06 00:39:00,40.3,34.6,29.90,WNW,283,5.0,19.0,80,0.00,,,0.00,0,WeatherCatV1.21B27,2013-10-06 05:39:00,
2013-10-06 00:40:00,40.3,34.6,29.91,NW,326,11.0,19.0,80,0.00,,,0.00,0,WeatherCatV1.21B27,2013-10-06 05:40:00,
2013-10-06 00:41:00,40.3,34.6,29.91,West,269,4.0,19.0,80,0.00,,,0.00,0,WeatherCatV1.21B27,2013-10-06 05:41:00,
2013-10-06 00:42:00,40.3,34.6,29.91,WNW,296,2.0,10.0,80,0.00,,,0.00,0,WeatherCatV1.21B27,2013-10-06 05:42:00,
2013-10-06 00:43:00,40.3,34.6,29.91,NNW,348,5.0,9.0,80,0.00,,,0.00,0,WeatherCatV1.21B27,2013-10-06 05:43:00,
2013-10-06 00:45:00,40.3,34.6,29.91,NW,310,10.0,13.0,80,0.00,,,0.00,0,WeatherCatV1.21B27,2013-10-06 05:45:00,
2013-10-06 00:46:00,40.4,34.7,29.91,WSW,254,4.0,16.0,80,0.00,,,0.00,0,WeatherCatV1.21B27,2013-10-06 05:46:00,
2013-10-06 00:47:00,40.4,34.7,29.91,NW,310,3.0,16.0,80,0.00,,,0.00,0,WeatherCatV1.21B27,2013-10-06 05:47:00,
2013-10-06 00:48:00,40.4,34.7,29.91,NNW,344,6.0,16.0,80,0.00,,,0.00,0,WeatherCatV1.21B27,2013-10-06 05:48:00,
2013-10-06 00:50:00,40.4,34.7,29.92,NW,310,6.0,17.0,80,0.00,,,0.00,0,WeatherCatV1.21B27,2013-10-06 05:50:00,
2013-10-06 00:51:00,40.4,34.7,29.92,West,267,0.0,16.0,80,0.00,,,0.00,0,WeatherCatV1.21B27,2013-10-06 05:51:00,
2013-10-06 00:53:00,40.5,34.8,29.92,West,279,4.0,15.0,80,0.00,,,0.00,0,WeatherCatV1.21B27,2013-10-06 05:53:00,
2013-10-06 00:55:00,40.5,34.8,29.92,WNW,296,5.0,16.0,80,0.00,,,0.00,0,WeatherCatV1.21B27,2013-10-06 05:55:00,
2013-10-06 00:56:00,40.5,34.8,29.92,NNW,327,13.0,13.0,80,0.00,,,0.00,0,WeatherCatV1.21B27,2013-10-06 05:56:00,
2013-10-06 00:58:00,40.5,34.8,29.92,West,265,14.0,14.0,80,0.00,,,0.00,0,WeatherCatV1.21B27,2013-10-06 05:58:00,
2013-10-06 00:59:00,40.5,34.8,29.92,NW,322,5.0,14.0,80,0.00,,,0.00,0,WeatherCatV1.21B27,2013-10-06 05:59:00,
2013-10-06 01:00:00,40.6,34.9,29.92,NW,326,11.0,14.0,80,0.00,,,0.00,0,WeatherCatV1.21B27,2013-10-06 06:00:00,
2013-10-06 01:01:00,40.6,34.9,29.92,WSW,248,5.0,11.0,80,0.00,,,0.00,0,WeatherCatV1.21B27,2013-10-06 06:01:00,
2013-10-06 01:03:00,40.6,34.9,29.91,NW,308,9.0,19.0,80,0.00,,,0.00,0,WeatherCatV1.21B27,2013-10-06 06:03:00,
2013-10-06 01:04:00,40.6,34.9,29.91,NW,307,6.0,19.0,80,0.00,,,0.00,0,WeatherCatV1.21B27,2013-10-06 06:04:00,
2013-10-06 01:05:00,40.6,34.9,29.92,NW,314,5.0,9.0,80,0.00,,,0.00,0,WeatherCatV1.21B27,2013-10-06 06:05:00,
2013-10-06 01:07:00,40.6,34.9,29.92,NW,311,5.0,11.0,80,0.00,,,0.00,0,WeatherCatV1.21B27,2013-10-06 06:07:00,
2013-10-06 01:09:00,40.7,35.0,29.92,NW,309,7.0,13.0,80,0.00,,,0.00,0,WeatherCatV1.21B27,2013-10-06 06:09:00,
2013-10-06 01:10:00,40.7,35.0,29.92,West,281,5.0,15.0,80,0.00,,,0.00,0,WeatherCatV1.21B27,2013-10-06 06:10:00,
2013-10-06 01:12:00,40.7,35.0,29.92,NW,319,4.0,7.0,80,0.00,,,0.00,0,WeatherCatV1.21B27,2013-10-06 06:12:00,
2013-10-06 01:14:00,40.7,35.0,29.92,WNW,283,9.0,15.0,80,0.00,,,0.00,0,WeatherCatV1.21B27,2013-10-06 06:14:00,
2013-10-06 01:15:00,40.7,35.0,29.92,WNW,292,5.0,11.0,80,0.00,,,0.00,0,WeatherCatV1.21B27,2013-10-06 06:15:00,
2013-10-06 01:17:00,40.8,35.1,29.92,West,266,3.0,19.0,80,0.00,,,0.00,0,WeatherCatV1.21B27,2013-10-06 06:17:00,
2013-10-06 01:19:00,40.8,35.1,29.92,West,261,4.0,18.0,80,0.00,,,0.00,0,WeatherCatV1.21B27,2013-10-06 06:19:00,
2013-10-06 01:21:00,40.8,35.1,29.91,NNW,331,13.0,13.0,80,0.00,,,0.00,0,WeatherCatV1.21B27,2013-10-06 06:21:00,
2013-10-06 01:22:00,40.8,35.1,29.92,WNW,298,6.0,18.0,80,0.00,,,0.00,0,WeatherCatV1.21B27,2013-10-06 06:22:00,
2013-10-06 01:23:00,40.8,35.1,29.92,WSW,243,6.0,18.0,80,0.00,,,0.00,0,WeatherCatV1.21B27,2013-10-06 06:23:00,
2013-10-06 01:24:00,40.8,35.1,29.92,WNW,291,6.0,13.0,80,0.00,,,0.00,0,WeatherCatV1.21B27,2013-10-06 06:24:00,
2013-10-06 01:25:00,40.9,35.2,29.92,WNW,287,7.0,13.0,80,0.00,,,0.00,0,WeatherCatV1.21B27,2013-10-06 06:25:00,
2013-10-06 01:26:00,40.8,35.1,29.92,West,265,11.0,11.0,80,0.00,,,0.00,0,WeatherCatV1.21B27,2013-10-06 06:26:00,
2013-10-06 01:27:00,40.8,35.1,29.92,West,261,4.0,13.0,80,0.00,,,0.00,0,WeatherCatV1.21B27,2013-10-06 06:27:00,
2013-10-06 01:28:00,40.8,35.1,29.91,West,277,13.0,13.0,80,0.00,,,0.00,0,WeatherCatV1.21B27,2013-10-06 06:28:00,
2013-10-06 01:29:00,40.8,35.1,29.91,NW,323,6.0,17.0,80,0.00,,,0.00,0,WeatherCatV1.21B27,2013-10-06 06:29:00,
2013-10-06 01:30:00,40.8,35.1,29.91,NW,323,3.0,17.0,80,0.00,,,0.00,0,WeatherCatV1.21B27,2013-10-06 06:30:00,
2013-10-06 01:31:00,40.8,35.1,29.91,NNW,331,5.0,14.0,80,0.00,,,0.00,0,WeatherCatV1.21B27,2013-10-06 06:31:00,
2013-10-06 01:32:00,40.8,35.1,29.91,West,260,14.0,14.0,80,0.00,,,0.00,0,WeatherCatV1.21B27,2013-10-06 06:32:00,
2013-10-06 01:33:00,40.8,35.1,29.92,WNW,289,5.0,15.0,80,0.00,,,0.00,0,WeatherCatV1.21B27,2013-10-06 06:33:00,
2013-10-06 01:34:00,40.9,35.2,29.91,NW,305,5.0,15.0,80,0.00,,,0.00,0,WeatherCatV1.21B27,2013-10-06 06:34:00,
2013-10-06 01:35:00,40.8,35.1,29.91,WNW,293,10.0,11.0,80,0.00,,,0.00,0,WeatherCatV1.21B27,2013-10-06 06:35:00,
2013-10-06 01:36:00,40.8,35.1,29.91,West,270,3.0,10.0,80,0.00,,,0.00,0,WeatherCatV1.21B27,2013-10-06 06:36:00,
2013-10-06 01:37:00,40.8,35.1,29.92,NNE,13,0.0,16.0,80,0.00,,,0.00,0,WeatherCatV1.21B27,2013-10-06 06:37:00,
2013-10-06 01:38:00,40.8,35.1,29.92,West,277,2.0,10.0,80,0.00,,,0.00,0,WeatherCatV1.21B27,2013-10-06 06:38:00,
2013-10-06 01:39:00,40.9,35.2,29.92,West,260,4.0,12.0,80,0.00,,,0.00,0,WeatherCatV1.21B27,2013-10-06 06:39:00,
2013-10-06 01:41:00,40.8,35.1,29.92,WSW,245,3.0,12.0,80,0.00,,,0.00,0,WeatherCatV1.21B27,2013-10-06 06:41:00,
2013-10-06 01:42:00,40.8,35.1,29.92,NW,310,4.0,6.0,80,0.00,,,0.00,0,WeatherCatV1.21B27,2013-10-06 06:42:00,
2013-10-06 01:44:00,40.8,35.1,29.92,WNW,294,4.0,14.0,80,0.00,,,0.00,0,WeatherCatV1.21B27,2013-10-06 06:44:00,
2013-10-06 01:46:00,40.9,35.2,29.92,West,267,3.0,11.0,80,0.00,,,0.00,0,WeatherCatV1.21B27,2013-10-06 06:46:00,
2013-10-06 01:48:00,40.9,35.2,29.92,WNW,290,1.0,14.0,80,0.00,,,0.00,0,WeatherCatV1.21B27,2013-10-06 06:48:00,
2013-10-06 01:49:00,40.9,35.2,29.92,West,263,2.0,15.0,80,0.00,,,0.00,0,WeatherCatV1.21B27,2013-10-06 06:49:00,
2013-10-06 01:51:00,40.9,35.2,29.92,NNW,331,4.0,17.0,80,0.00,,,0.00,0,WeatherCatV1.21B27,2013-10-06 06:51:00,
2013-10-06 01:52:00,40.9,35.2,29.92,WSW,250,9.0,17.0,80,0.00,,,0.00,0,WeatherCatV1.21B27,2013-10-06 06:52:00,
2013-10-06 01:53:00,40.9,35.2,29.92,West,271,12.0,12.0,80,0.00,,,0.00,0,WeatherCatV1.21B27,2013-10-06 06:53:00,
2013-10-06 01:55:00,40.9,35.5,29.92,North,355,6.0,12.0,81,0.00,,,0.00,0,WeatherCatV1.21B27,2013-10-06 06:55:00,
2013-10-06 01:56:00,40.9,35.5,29.92,North,0,13.0,14.0,81,0.00,,,0.00,0,WeatherCatV1.21B27,2013-10-06 06:56:00,
2013-10-06 01:57:00,40.9,35.5,29.92,NW,326,7.0,14.0,81,0.00,,,0.00,0,WeatherCatV1.21B27,2013-10-06 06:57:00,
2013-10-06 01:59:00,40.9,35.5,29.92,NW,309,0.0,6.0,81,0.00,,,0.00,0,WeatherCatV1.21B27,2013-10-06 06:59:00,
2013-10-06 02:00:00,40.9,35.5,29.92,SW,215,7.0,12.0,81,0.00,,,0.00,0,WeatherCatV1.21B27,2013-10-06 07:00:00,
2013-10-06 02:01:00,40.9,35.5,29.92,West,273,5.0,16.0,81,0.00,,,0.00,0,WeatherCatV1.21B27,2013-10-06 07:01:00,
2013-10-06 02:02:00,40.9,35.5,29.92,West,271,6.0,16.0,81,0.00,,,0.00,0,WeatherCatV1.21B27,2013-10-06 07:02:00,
2013-10-06 02:04:00,40.9,35.5,29.92,West,275,2.0,11.0,81,0.00,,,0.00,0,WeatherCatV1.21B27,2013-10-06 07:04:00,
2013-10-06 02:05:00,40.9,35.5,29.92,NW,311,8.0,11.0,81,0.00,,,0.00,0,WeatherCatV1.21B27,2013-10-06 07:05:00,
2013-10-06 02:06:00,40.9,35.5,29.92,WNW,289,5.0,12.0,81,0.00,,,0.00,0,WeatherCatV1.21B27,2013-10-06 07:06:00,
2013-10-06 02:07:00,40.9,35.5,29.92,NW,317,9.0,12.0,81,0.00,,,0.00,0,WeatherCatV1.21B27,2013-10-06 07:07:00,
2013-10-06 02:09:00,40.9,35.5,29.92,NW,311,9.0,21.0,81,0.00,,,0.00,0,WeatherCatV1.21B27,2013-10-06 07:09:00,
2013-10-06 02:10:00,40.9,35.5,29.92,West,274,5.0,21.0,81,0.00,,,0.00,0,WeatherCatV1.21B27,2013-10-06 07:10:00,
2013-10-06 02:12:00,40.9,35.5,29.92,North,355,5.0,15.0,81,0.00,,,0.00,0,WeatherCatV1.21B27,2013-10-06 07:12:00,
2013-10-06 02:14:00,40.9,35.5,29.92,NW,325,9.0,13.0,81,0.00,,,0.00,0,WeatherCatV1.21B27,2013-10-06 07:14:00,
2013-10-06 02:15:00,40.9,35.5,29.92,NNW,329,4.0,13.0,81,0.00,,,0.00,0,WeatherCatV1.21B27,2013-10-06 07:15:00,
2013-10-06 02:16:00,40.9,35.5,29.92,NW,325,4.0,13.0,81,0.00,,,0.00,0,WeatherCatV1.21B27,2013-10-06 07:16:00,
2013-10-06 02:17:00,40.9,35.5,29.92,NW,322,5.0,9.0,81,0.00,,,0.00,0,WeatherCatV1.21B27,2013-10-06 07:17:00,
2013-10-06 02:20:00,40.9,35.8,29.92,West,273,3.0,7.0,82,0.00,,,0.00,0,WeatherCatV1.21B27,2013-10-06 07:20:00,
2013-10-06 02:21:00,40.9,35.8,29.92,NNW,328,5.0,6.0,82,0.00,,,0.00,0,WeatherCatV1.21B27,2013-10-06 07:21:00,
2013-10-06 02:22:00,41.0,35.9,29.93,NW,325,2.0,10.0,82,0.00,,,0.00,0,WeatherCatV1.21B27,2013-10-06 07:22:00,
2013-10-06 02:23:00,41.0,35.9,29.93,WNW,295,4.0,10.0,82,0.00,,,0.00,0,WeatherCatV1.21B27,2013-10-06 07:23:00,
2013-10-06 02:25:00,41.0,37.1,29.92,WNW,299,5.0,8.0,86,0.00,,,0.00,0,WeatherCatV1.21B27,2013-10-06 07:25:00,
2013-10-06 02:26:00,41.0,35.9,29.93,NW,310,1.0,10.0,82,0.00,,,0.00,0,WeatherCatV1.21B27,2013-10-06 07:26:00,
2013-10-06 02:27:00,41.0,35.9,29.92,NNW,327,7.0,12.0,82,0.00,,,0.00,0,WeatherCatV1.21B27,2013-10-06 07:27:00,
2013-10-06 02:28:00,41.0,35.9,29.92,NNW,334,5.0,12.0,82,0.00,,,0.00,0,WeatherCatV1.21B27,2013-10-06 07:28:00,
2013-10-06 02:30:00,41.1,36.0,29.92,West,275,7.0,14.0,82,0.00,,,0.00,0,WeatherCatV1.21B27,2013-10-06 07:30:00,
2013-10-06 02:31:00,41.1,36.0,29.92,West,281,3.0,13.0,82,0.00,,,0.00,0,WeatherCatV1.21B27,2013-10-06 07:31:00,
2013-10-06 02:33:00,41.1,36.0,29.93,WNW,295,6.0,10.0,82,0.00,,,0.00,0,WeatherCatV1.21B27,2013-10-06 07:33:00,
2013-10-06 02:34:00,41.1,36.0,29.92,WNW,285,1.0,6.0,82,0.00,,,0.00,0,WeatherCatV1.21B27,2013-10-06 07:34:00,
2013-10-06 02:35:00,41.1,36.0,29.93,NW,321,6.0,8.0,82,0.00,,,0.00,0,WeatherCatV1.21B27,2013-10-06 07:35:00,
2013-10-06 02:36:00,41.1,36.0,29.93,WNW,283,9.0,12.0,82,0.00,,,0.00,0,WeatherCatV1.21B27,2013-10-06 07:36:00,
2013-10-06 02:38:00,41.1,36.0,29.93,WNW,301,5.0,5.0,82,0.00,,,0.00,0,WeatherCatV1.21B27,2013-10-06 07:38:00,
2013-10-06 02:39:00,41.2,36.1,29.93,WNW,291,1.0,14.0,82,0.00,,,0.00,0,WeatherCatV1.21B27,2013-10-06 07:39:00,
2013-10-06 02:40:00,41.2,36.1,29.93,WNW,284,3.0,6.0,82,0.00,,,0.00,0,WeatherCatV1.21B27,2013-10-06 07:40:00,
2013-10-06 02:41:00,41.2,36.1,29.93,WNW,283,2.0,6.0,82,0.00,,,0.00,0,WeatherCatV1.21B27,2013-10-06 07:41:00,
2013-10-06 02:43:00,41.3,36.2,29.93,NW,326,4.0,17.0,82,0.00,,,0.00,0,WeatherCatV1.21B27,2013-10-06 07:43:00,
2013-10-06 02:44:00,41.3,36.2,29.93,NW,325,5.0,17.0,82,0.00,,,0.00,0,WeatherCatV1.21B27,2013-10-06 07:44:00,
2013-10-06 02:45:00,41.3,36.2,29.93,NW,309,7.0,17.0,82,0.00,,,0.00,0,WeatherCatV1.21B27,2013-10-06 07:45:00,
2013-10-06 02:46:00,41.3,36.2,29.93,West,272,3.0,13.0,82,0.00,,,0.00,0,WeatherCatV1.21B27,2013-10-06 07:46:00,
2013-10-06 02:49:00,41.4,36.3,29.93,NW,306,9.0,11.0,82,0.00,,,0.00,0,WeatherCatV1.21B27,2013-10-06 07:49:00,
2013-10-06 02:50:00,41.3,36.2,29.92,WNW,301,2.0,11.0,82,0.00,,,0.00,0,WeatherCatV1.21B27,2013-10-06 07:50:00,
2013-10-06 02:51:00,41.4,36.3,29.93,NW,309,5.0,7.0,82,0.00,,,0.00,0,WeatherCatV1.21B27,2013-10-06 07:51:00,
2013-10-06 02:54:00,41.4,36.3,29.92,NW,315,4.0,10.0,82,0.00,,,0.00,0,WeatherCatV1.21B27,2013-10-06 07:54:00,
2013-10-06 02:55:00,41.4,36.3,29.92,North,5,10.0,12.0,82,0.00,,,0.00,0,WeatherCatV1.21B27,2013-10-06 07:55:00,
2013-10-06 02:56:00,41.4,36.0,29.92,WNW,284,3.0,12.0,81,0.00,,,0.00,0,WeatherCatV1.21B27,2013-10-06 07:56:00,
2013-10-06 02:59:00,41.4,36.3,29.92,North,5,5.0,10.0,82,0.00,,,0.00,0,WeatherCatV1.21B27,2013-10-06 07:59:00,
2013-10-06 03:00:00,41.5,36.4,29.92,NW,315,7.0,7.0,82,0.00,,,0.00,0,WeatherCatV1.21B27,2013-10-06 08:00:00,
2013-10-06 03:01:00,41.5,36.4,29.92,NW,312,2.0,7.0,82,0.00,,,0.00,0,WeatherCatV1.21B27,2013-10-06 08:01:00,
2013-10-06 03:02:00,41.5,36.4,29.92,NW,325,3.0,15.0,82,0.00,,,0.00,0,WeatherCatV1.21B27,2013-10-06 08:02:00,
2013-10-06 03:04:00,41.5,36.1,29.92,NW,319,2.0,11.0,81,0.00,,,0.00,0,WeatherCatV1.21B27,2013-10-06 08:04:00,
2013-10-06 03:05:00,41.5,36.1,29.92,West,275,10.0,11.0,81,0.00,,,0.00,0,WeatherCatV1.21B27,2013-10-06 08:05:00,
2013-10-06 03:06:00,41.5,36.1,29.92,WSW,244,3.0,15.0,81,0.00,,,0.00,0,WeatherCatV1.21B27,2013-10-06 08:06:00,
2013-10-06 03:07:00,41.5,36.1,29.92,West,269,9.0,15.0,81,0.00,,,0.00,0,WeatherCatV1.21B27,2013-10-06 08:07:00,
2013-10-06 03:09:00,41.5,36.1,29.92,West,278,5.0,16.0,81,0.00,,,0.00,0,WeatherCatV1.21B27,2013-10-06 08:09:00,
2013-10-06 03:10:00,41.5,36.1,29.92,WNW,298,1.0,11.0,81,0.00,,,0.00,0,WeatherCatV1.21B27,2013-10-06 08:10:00,
2013-10-06 03:11:00,41.5,36.1,29.93,West,278,4.0,11.0,81,0.00,,,0.00,0,WeatherCatV1.21B27,2013-10-06 08:11:00,
2013-10-06 03:12:00,41.5,36.1,29.92,WNW,293,7.0,7.0,81,0.00,,,0.00,0,WeatherCatV1.21B27,2013-10-06 08:12:00,
2013-10-06 03:14:00,41.5,36.4,29.93,WSW,244,3.0,14.0,82,0.00,,,0.00,0,WeatherCatV1.21B27,2013-10-06 08:14:00,
2013-10-06 03:15:00,41.5,36.4,29.93,WNW,298,1.0,6.0,82,0.00,,,0.00,0,WeatherCatV1.21B27,2013-10-06 08:15:00,
2013-10-06 03:16:00,41.5,36.4,29.93,NW,309,3.0,6.0,82,0.00,,,0.00,0,WeatherCatV1.21B27,2013-10-06 08:16:00,
2013-10-06 03:17:00,41.5,36.4,29.93,North,350,3.0,11.0,82,0.00,,,0.00,0,WeatherCatV1.21B27,2013-10-06 08:17:00,
2013-10-06 03:18:00,41.5,36.4,29.93,NW,324,10.0,11.0,82,0.00,,,0.00,0,WeatherCatV1.21B27,2013-10-06 08:18:00,
2013-10-06 03:19:00,41.5,36.4,29.93,NW,312,1.0,10.0,82,0.00,,,0.00,0,WeatherCatV1.21B27,2013-10-06 08:19:00,
2013-10-06 03:21:00,41.4,36.6,29.93,West,281,4.0,14.0,83,0.00,,,0.00,0,WeatherCatV1.21B27,2013-10-06 08:21:00,
2013-10-06 03:22:00,41.4,36.3,29.93,WNW,282,6.0,14.0,82,0.00,,,0.00,0,WeatherCatV1.21B27,2013-10-06 08:22:00,
2013-10-06 03:23:00,41.3,36.5,29.93,NNW,342,4.0,8.0,83,0.00,,,0.01,0,WeatherCatV1.21B27,2013-10-06 08:23:00,
2013-10-06 03:24:00,41.2,36.4,29.93,WNW,294,8.0,10.0,83,0.00,,,0.01,0,WeatherCatV1.21B27,2013-10-06 08:24:00,
2013-10-06 03:26:00,41.1,36.3,29.93,NNW,334,4.0,14.0,83,0.00,,,0.01,0,WeatherCatV1.21B27,2013-10-06 08:26:00,
2013-10-06 03:27:00,41.1,36.3,29.93,NNW,335,5.0,11.0,83,0.00,,,0.01,0,WeatherCatV1.21B27,2013-10-06 08:27:00,
2013-10-06 03:28:00,41.0,36.2,29.92,NW,310,5.0,11.0,83,0.00,,,0.01,0,WeatherCatV1.21B27,2013-10-06 08:28:00,
2013-10-06 03:29:00,40.9,36.4,29.93,NNW,327,3.0,6.0,84,0.00,,,0.01,0,WeatherCatV1.21B27,2013-10-06 08:29:00,
2013-10-06 03:31:00,40.8,36.3,29.93,NW,319,4.0,7.0,84,0.00,,,0.01,0,WeatherCatV1.21B27,2013-10-06 08:31:00,
2013-10-06 03:32:00,40.8,36.3,29.93,WNW,294,6.0,9.0,84,0.00,,,0.01,0,WeatherCatV1.21B27,2013-10-06 08:32:00,
2013-10-06 03:33:00,40.7,36.2,29.93,NW,318,13.0,13.0,84,0.00,,,0.01,0,WeatherCatV1.21B27,2013-10-06 08:33:00,
2013-10-06 03:34:00,40.7,36.5,29.93,WNW,299,7.0,13.0,85,0.00,,,0.01,0,WeatherCatV1.21B27,2013-10-06 08:34:00,
2013-10-06 03:36:00,40.6,36.5,29.93,West,281,5.0,9.0,85,0.00,,,0.01,0,WeatherCatV1.21B27,2013-10-06 08:36:00,
2013-10-06 03:37:00,40.6,36.5,29.93,WNW,293,2.0,9.0,85,0.00,,,0.01,0,WeatherCatV1.21B27,2013-10-06 08:37:00,
2013-10-06 03:38:00,40.5,36.3,29.93,WNW,298,4.0,9.0,85,0.00,,,0.01,0,WeatherCatV1.21B27,2013-10-06 08:38:00,
2013-10-06 03:39:00,40.4,36.2,29.93,NW,307,3.0,11.0,85,0.00,,,0.01,0,WeatherCatV1.21B27,2013-10-06 08:39:00,
2013-10-06 03:40:00,40.4,36.2,29.93,WNW,303,1.0,11.0,85,0.00,,,0.01,0,WeatherCatV1.21B27,2013-10-06 08:40:00,
2013-10-06 03:41:00,40.4,36.5,29.93,WNW,294,4.0,11.0,86,0.00,,,0.01,0,WeatherCatV1.21B27,2013-10-06 08:41:00,
2013-10-06 03:42:00,40.4,36.5,29.93,WNW,285,5.0,11.0,86,0.00,,,0.01,0,WeatherCatV1.21B27,2013-10-06 08:42:00,
2013-10-06 03:43:00,40.3,36.5,29.93,WNW,282,3.0,14.0,86,0.00,,,0.01,0,WeatherCatV1.21B27,2013-10-06 08:43:00,
2013-10-06 03:44:00,40.3,36.5,29.93,NNW,331,12.0,14.0,86,0.00,,,0.01,0,WeatherCatV1.21B27,2013-10-06 08:44:00,
2013-10-06 03:45:00,40.2,36.3,29.93,WNW,292,6.0,12.0,86,0.00,,,0.01,0,WeatherCatV1.21B27,2013-10-06 08:45:00,
2013-10-06 03:47:00,40.2,36.3,29.93,West,276,5.0,11.0,86,0.00,,,0.01,0,WeatherCatV1.21B27,2013-10-06 08:47:00,
2013-10-06 03:48:00,40.2,36.3,29.93,WNW,300,11.0,16.0,86,0.00,,,0.01,0,WeatherCatV1.21B27,2013-10-06 08:48:00,
2013-10-06 03:49:00,40.2,36.3,29.93,NW,326,12.0,16.0,86,0.00,,,0.01,0,WeatherCatV1.21B27,2013-10-06 08:49:00,
2013-10-06 03:50:00,40.2,36.3,29.93,NNW,329,5.0,15.0,86,0.00,,,0.01,0,WeatherCatV1.21B27,2013-10-06 08:50:00,
2013-10-06 03:52:00,40.2,36.3,29.93,NNW,337,4.0,12.0,86,0.00,,,0.01,0,WeatherCatV1.21B27,2013-10-06 08:52:00,
2013-10-06 03:53:00,40.2,36.3,29.93,NW,307,11.0,11.0,86,0.00,,,0.01,0,WeatherCatV1.21B27,2013-10-06 08:53:00,
2013-10-06 03:54:00,40.2,36.3,29.93,North,0,7.0,11.0,86,0.00,,,0.01,0,WeatherCatV1.21B27,2013-10-06 08:54:00,
2013-10-06 03:55:00,40.2,36.3,29.93,West,268,1.0,12.0,86,0.00,,,0.01,0,WeatherCatV1.21B27,2013-10-06 08:55:00,
2013-10-06 03:57:00,40.2,36.3,29.93,WNW,294,7.0,7.0,86,0.00,,,0.01,0,WeatherCatV1.21B27,2013-10-06 08:57:00,
2013-10-06 03:58:00,40.2,36.3,29.93,WNW,296,2.0,7.0,86,0.00,,,0.01,0,WeatherCatV1.21B27,2013-10-06 08:58:00,
2013-10-06 03:59:00,40.2,36.3,29.93,WNW,296,1.0,7.0,86,0.00,,,0.01,0,WeatherCatV1.21B27,2013-10-06 08:59:00,
2013-10-06 04:00:00,40.2,36.7,29.93,WNW,288,1.0,6.0,87,0.00,,,0.01,0,WeatherCatV1.21B27,2013-10-06 09:00:00,
2013-10-06 04:02:00,40.2,36.7,29.93,NNW,341,6.0,12.0,87,0.00,,,0.01,0,WeatherCatV1.21B27,2013-10-06 09:02:00,
2013-10-06 04:03:00,40.2,36.7,29.93,West,279,6.0,12.0,87,0.00,,,0.01,0,WeatherCatV1.21B27,2013-10-06 09:03:00,
2013-10-06 04:04:00,40.2,36.7,29.93,West,277,3.0,12.0,87,0.00,,,0.01,0,WeatherCatV1.21B27,2013-10-06 09:04:00,
2013-10-06 04:08:00,40.2,36.7,29.93,NW,322,9.0,10.0,87,0.00,,,0.01,0,WeatherCatV1.21B27,2013-10-06 09:08:00,
2013-10-06 04:09:00,40.2,36.7,29.93,NNW,346,4.0,10.0,87,0.00,,,0.01,0,WeatherCatV1.21B27,2013-10-06 09:09:00,
2013-10-06 04:10:00,40.2,36.7,29.93,NNW,332,5.0,11.0,87,0.00,,,0.01,0,WeatherCatV1.21B27,2013-10-06 09:10:00,
2013-10-06 04:13:00,40.3,36.7,29.93,NW,318,6.0,10.0,87,0.00,,,0.01,0,WeatherCatV1.21B27,2013-10-06 09:13:00,
2013-10-06 04:14:00,40.3,36.7,29.93,WNW,286,1.0,10.0,87,0.00,,,0.01,0,WeatherCatV1.21B27,2013-10-06 09:14:00,
2013-10-06 04:15:00,40.3,36.7,29.93,West,279,5.0,7.0,87,0.00,,,0.01,0,WeatherCatV1.21B27,2013-10-06 09:15:00,
2013-10-06 04:18:00,40.3,36.7,29.93,NW,304,5.0,6.0,87,0.00,,,0.01,0,WeatherCatV1.21B27,2013-10-06 09:18:00,
2013-10-06 04:19:00,40.4,36.8,29.93,WNW,291,2.0,6.0,87,0.00,,,0.01,0,WeatherCatV1.21B27,2013-10-06 09:19:00,
2013-10-06 04:20:00,40.4,36.8,29.93,West,279,6.0,6.0,87,0.00,,,0.01,0,WeatherCatV1.21B27,2013-10-06 09:20:00,
2013-10-06 04:23:00,40.4,36.8,29.93,North,11,8.0,14.0,87,0.00,,,0.01,0,WeatherCatV1.21B27,2013-10-06 09:23:00,
2013-10-06 04:24:00,40.4,36.8,29.93,WNW,294,2.0,14.0,87,0.00,,,0.01,0,WeatherCatV1.21B27,2013-10-06 09:24:00,
2013-10-06 04:25:00,40.4,36.8,29.93,WNW,294,0.0,14.0,87,0.00,,,0.01,0,WeatherCatV1.21B27,2013-10-06 09:25:00,
2013-10-06 04:29:00,40.5,36.9,29.93,WNW,299,13.0,13.0,87,0.00,,,0.01,0,WeatherCatV1.21B27,2013-10-06 09:29:00,
2013-10-06 04:30:00,40.5,36.9,29.93,NW,321,7.0,15.0,87,0.00,,,0.01,0,WeatherCatV1.21B27,2013-10-06 09:30:00,
2013-10-06 04:31:00,40.5,36.9,29.93,West,262,3.0,7.0,87,0.00,,,0.01,0,WeatherCatV1.21B27,2013-10-06 09:31:00,
2013-10-06 04:34:00,40.6,37.0,29.93,NW,304,3.0,8.0,87,0.00,,,0.01,0,WeatherCatV1.21B27,2013-10-06 09:34:00,
2013-10-06 04:35:00,40.6,37.0,29.93,WNW,303,1.0,8.0,87,0.00,,,0.01,0,WeatherCatV1.21B27,2013-10-06 09:35:00,
2013-10-06 04:37:00,40.6,37.0,29.93,WNW,302,2.0,7.0,87,0.00,,,0.01,0,WeatherCatV1.21B27,2013-10-06 09:37:00,
2013-10-06 04:39:00,40.6,37.0,29.92,NW,309,6.0,15.0,87,0.00,,,0.01,0,WeatherCatV1.21B27,2013-10-06 09:39:00,
2013-10-06 04:40:00,40.6,37.0,29.93,NNW,331,6.0,15.0,87,0.00,,,0.01,0,WeatherCatV1.21B27,2013-10-06 09:40:00,
2013-10-06 04:41:00,40.6,36.8,29.93,NNW,329,9.0,11.0,86,0.00,,,0.01,0,WeatherCatV1.21B27,2013-10-06 09:41:00,
2013-10-06 04:43:00,40.7,36.8,29.93,NW,311,6.0,14.0,86,0.00,,,0.01,0,WeatherCatV1.21B27,2013-10-06 09:43:00,
2013-10-06 04:44:00,40.7,36.8,29.93,WNW,297,4.0,14.0,86,0.00,,,0.01,0,WeatherCatV1.21B27,2013-10-06 09:44:00,
2013-10-06 04:45:00,40.7,36.8,29.93,WNW,298,4.0,9.0,86,0.00,,,0.01,0,WeatherCatV1.21B27,2013-10-06 09:45:00,
2013-10-06 04:46:00,40.7,36.8,29.93,NW,319,9.0,9.0,86,0.00,,,0.01,0,WeatherCatV1.21B27,2013-10-06 09:46:00,
2013-10-06 04:48:00,40.7,36.8,29.93,NW,324,7.0,16.0,86,0.00,,,0.01,0,WeatherCatV1.21B27,2013-10-06 09:48:00,
2013-10-06 04:49:00,40.7,36.8,29.93,North,351,3.0,16.0,86,0.00,,,0.01,0,WeatherCatV1.21B27,2013-10-06 09:49:00,
2013-10-06 04:50:00,40.7,36.8,29.93,West,277,4.0,11.0,86,0.00,,,0.01,0,WeatherCatV1.21B27,2013-10-06 09:50:00,
2013-10-06 04:51:00,40.7,36.8,29.93,West,279,4.0,11.0,86,0.00,,,0.01,0,WeatherCatV1.21B27,2013-10-06 09:51:00,
2013-10-06 04:53:00,40.7,36.5,29.93,NNW,329,4.0,7.0,85,0.00,,,0.01,0,WeatherCatV1.21B27,2013-10-06 09:53:00,
2013-10-06 04:54:00,40.7,36.5,29.93,NW,325,3.0,7.0,85,0.00,,,0.01,0,WeatherCatV1.21B27,2013-10-06 09:54:00,
2013-10-06 04:56:00,40.7,36.5,29.94,WNW,292,3.0,10.0,85,0.00,,,0.01,0,WeatherCatV1.21B27,2013-10-06 09:56:00,
2013-10-06 04:59:00,40.7,36.5,29.94,NW,314,1.0,12.0,85,0.00,,,0.01,0,WeatherCatV1.21B27,2013-10-06 09:59:00,
2013-10-06 05:01:00,40.8,36.7,29.94,NNW,340,10.0,10.0,85,0.00,,,0.01,0,WeatherCatV1.21B27,2013-10-06 10:01:00,
2013-10-06 05:04:00,40.7,36.5,29.94,NW,323,5.0,12.0,85,0.00,,,0.01,0,WeatherCatV1.21B27,2013-10-06 10:04:00,
2013-10-06 05:05:00,40.7,36.5,29.94,NW,320,10.0,12.0,85,0.00,,,0.01,0,WeatherCatV1.21B27,2013-10-06 10:05:00,
2013-10-06 05:06:00,40.7,36.5,29.93,NW,322,17.0,17.0,85,0.00,,,0.01,0,WeatherCatV1.21B27,2013-10-06 10:06:00,
2013-10-06 05:09:00,40.8,36.3,29.94,NNW,338,4.0,10.0,84,0.00,,,0.01,0,WeatherCatV1.21B27,2013-10-06 10:09:00,
2013-10-06 05:10:00,40.8,36.3,29.94,NNW,345,5.0,16.0,84,0.00,,,0.01,0,WeatherCatV1.21B27,2013-10-06 10:10:00,
2013-10-06 05:11:00,40.8,36.3,29.94,WNW,300,10.0,16.0,84,0.00,,,0.01,0,WeatherCatV1.21B27,2013-10-06 10:11:00,
2013-10-06 05:12:00,40.8,36.3,29.94,North,5,5.0,12.0,84,0.00,,,0.01,0,WeatherCatV1.21B27,2013-10-06 10:12:00,
2013-10-06 05:14:00,40.8,36.3,29.94,NW,321,1.0,10.0,84,0.00,,,0.01,0,WeatherCatV1.21B27,2013-10-06 10:14:00,
2013-10-06 05:16:00,40.8,36.3,29.94,NNW,343,11.0,11.0,84,0.00,,,0.01,0,WeatherCatV1.21B27,2013-10-06 10:16:00,
2013-10-06 05:17:00,40.7,36.2,29.94,NNW,329,5.0,16.0,84,0.00,,,0.01,0,WeatherCatV1.21B27,2013-10-06 10:17:00,
2013-10-06 05:19:00,40.8,36.3,29.94,NW,313,5.0,12.0,84,0.00,,,0.01,0,WeatherCatV1.21B27,2013-10-06 10:19:00,
2013-10-06 05:21:00,40.8,36.3,29.94,NW,321,4.0,13.0,84,0.00,,,0.01,0,WeatherCatV1.21B27,2013-10-06 10:21:00,
2013-10-06 05:22:00,40.8,36.3,29.94,NNW,328,5.0,13.0,84,0.00,,,0.01,0,WeatherCatV1.21B27,2013-10-06 10:22:00,
2013-10-06 05:24:00,40.8,36.3,29.94,NW,319,6.0,15.0,84,0.00,,,0.01,0,WeatherCatV1.21B27,2013-10-06 10:24:00,
2013-10-06 05:26:00,40.8,36.3,29.94,NW,322,8.0,12.0,84,0.00,,,0.01,0,WeatherCatV1.21B27,2013-10-06 10:26:00,
2013-10-06 05:27:00,40.8,36.3,29.94,NW,309,3.0,12.0,84,0.00,,,0.01,0,WeatherCatV1.21B27,2013-10-06 10:27:00,
2013-10-06 05:28:00,40.8,36.3,29.94,NNW,333,3.0,9.0,84,0.00,,,0.01,0,WeatherCatV1.21B27,2013-10-06 10:28:00,
2013-10-06 05:30:00,40.9,36.4,29.94,West,271,3.0,13.0,84,0.00,,,0.01,0,WeatherCatV1.21B27,2013-10-06 10:30:00,
2013-10-06 05:31:00,40.9,36.4,29.94,WNW,292,3.0,6.0,84,0.00,,,0.01,0,WeatherCatV1.21B27,2013-10-06 10:31:00,
2013-10-06 05:32:00,40.9,36.4,29.94,WNW,294,6.0,9.0,84,0.00,,,0.01,0,WeatherCatV1.21B27,2013-10-06 10:32:00,
2013-10-06 05:34:00,40.9,36.4,29.94,NW,315,5.0,14.0,84,0.00,,,0.01,0,WeatherCatV1.21B27,2013-10-06 10:34:00,
2013-10-06 05:35:00,40.9,36.4,29.95,West,259,3.0,12.0,84,0.00,,,0.01,0,WeatherCatV1.21B27,2013-10-06 10:35:00,
2013-10-06 05:36:00,40.9,36.4,29.95,WNW,295,11.0,12.0,84,0.00,,,0.01,0,WeatherCatV1.21B27,2013-10-06 10:36:00,
2013-10-06 05:37:00,40.9,36.4,29.95,WNW,299,0.0,12.0,84,0.00,,,0.01,0,WeatherCatV1.21B27,2013-10-06 10:37:00,
2013-10-06 05:38:00,41.0,36.5,29.95,WNW,299,2.0,3.0,84,0.00,,,0.01,0,WeatherCatV1.21B27,2013-10-06 10:38:00,
2013-10-06 05:39:00,41.0,36.5,29.95,North,5,5.0,5.0,84,0.00,,,0.01,0,WeatherCatV1.21B27,2013-10-06 10:39:00,
2013-10-06 05:40:00,41.0,36.5,29.95,WNW,290,10.0,12.0,84,0.00,,,0.01,0,WeatherCatV1.21B27,2013-10-06 10:40:00,
2013-10-06 05:41:00,41.0,38.0,29.95,West,273,5.0,20.0,89,0.00,,,0.01,0,WeatherCatV1.21B27,2013-10-06 10:41:00,
2013-10-06 05:42:00,41.1,36.9,29.95,NW,306,4.0,20.0,85,0.00,,,0.01,0,WeatherCatV1.21B27,2013-10-06 10:42:00,
2013-10-06 05:43:00,41.1,36.9,29.95,NW,321,6.0,11.0,85,0.00,,,0.01,0,WeatherCatV1.21B27,2013-10-06 10:43:00,
2013-10-06 05:44:00,41.1,36.6,29.95,NW,317,6.0,13.0,84,0.00,,,0.01,0,WeatherCatV1.21B27,2013-10-06 10:44:00,
2013-10-06 05:45:00,41.1,36.6,29.95,NW,325,3.0,13.0,84,0.00,,,0.01,0,WeatherCatV1.21B27,2013-10-06 10:45:00,
2013-10-06 05:47:00,41.1,36.6,29.94,NW,322,6.0,11.0,84,0.00,,,0.01,0,WeatherCatV1.21B27,2013-10-06 10:47:00,
2013-10-06 05:48:00,41.2,36.7,29.94,WNW,297,2.0,6.0,84,0.00,,,0.01,0,WeatherCatV1.21B27,2013-10-06 10:48:00,
2013-10-06 05:50:00,41.2,36.7,29.94,NW,319,2.0,12.0,84,0.00,,,0.01,0,WeatherCatV1.21B27,2013-10-06 10:50:00,
2013-10-06 05:51:00,41.2,36.7,29.94,WNW,302,2.0,7.0,84,0.00,,,0.01,0,WeatherCatV1.21B27,2013-10-06 10:51:00,
2013-10-06 05:52:00,41.2,36.7,29.94,West,277,6.0,9.0,84,0.00,,,0.01,0,WeatherCatV1.21B27,2013-10-06 10:52:00,
2013-10-06 05:53:00,41.3,36.8,29.94,WNW,290,2.0,9.0,84,0.00,,,0.01,0,WeatherCatV1.21B27,2013-10-06 10:53:00,
2013-10-06 05:55:00,41.3,37.1,29.94,West,279,7.0,7.0,85,0.00,,,0.01,0,WeatherCatV1.21B27,2013-10-06 10:55:00,
2013-10-06 05:56:00,41.3,37.1,29.94,WNW,301,7.0,13.0,85,0.00,,,0.01,0,WeatherCatV1.21B27,2013-10-06 10:56:00,
2013-10-06 05:57:00,41.3,37.1,29.94,NNW,329,5.0,13.0,85,0.00,,,0.01,0,WeatherCatV1.21B27,2013-10-06 10:57:00,
2013-10-06 05:58:00,41.3,37.1,29.94,NNW,334,3.0,12.0,85,0.00,,,0.01,0,WeatherCatV1.21B27,2013-10-06 10:58:00,
2013-10-06 06:00:00,41.4,36.9,29.94,NW,306,2.0,6.0,84,0.00,,,0.01,0,WeatherCatV1.21B27,2013-10-06 11:00:00,
2013-10-06 06:02:00,41.4,36.9,29.94,NNE,22,6.0,10.0,84,0.00,,,0.01,0,WeatherCatV1.21B27,2013-10-06 11:02:00,
2013-10-06 06:03:00,41.4,36.9,29.94,NW,326,3.0,10.0,84,0.00,,,0.01,0,WeatherCatV1.21B27,2013-10-06 11:03:00,
2013-10-06 06:04:00,41.5,37.0,29.95,NNW,336,6.0,6.0,84,0.00,,,0.01,0,WeatherCatV1.21B27,2013-10-06 11:04:00,
2013-10-06 06:05:00,41.5,37.0,29.94,NNW,331,10.0,14.0,84,0.00,,,0.01,0,WeatherCatV1.21B27,2013-10-06 11:05:00,
2013-10-06 06:07:00,41.5,37.0,29.95,WNW,283,3.0,13.0,84,0.00,,,0.01,0,WeatherCatV1.21B27,2013-10-06 11:07:00,
2013-10-06 06:08:00,41.5,37.0,29.95,NW,310,7.0,13.0,84,0.00,,,0.01,0,WeatherCatV1.21B27,2013-10-06 11:08:00,
2013-10-06 06:09:00,41.6,37.1,29.95,NW,323,11.0,11.0,84,0.00,,,0.01,0,WeatherCatV1.21B27,2013-10-06 11:09:00,
2013-10-06 06:10:00,41.6,37.1,29.94,NW,315,3.0,11.0,84,0.00,,,0.01,0,WeatherCatV1.21B27,2013-10-06 11:10:00,
2013-10-06 06:12:00,41.6,37.1,29.94,NNW,342,9.0,9.0,84,0.00,,,0.01,0,WeatherCatV1.21B27,2013-10-06 11:12:00,
2013-10-06 06:13:00,41.6,37.1,29.94,NW,321,5.0,17.0,84,0.00,,,0.01,0,WeatherCatV1.21B27,2013-10-06 11:13:00,
2013-10-06 06:14:00,41.7,37.2,29.94,NNW,329,7.0,17.0,84,0.00,,,0.01,0,WeatherCatV1.21B27,2013-10-06 11:14:00,
2013-10-06 06:15:00,41.7,37.2,29.94,West,279,14.0,14.0,84,0.00,,,0.01,0,WeatherCatV1.21B27,2013-10-06 11:15:00,
2013-10-06 06:18:00,41.8,37.3,29.95,NNW,327,6.0,15.0,84,0.00,,,0.01,0,WeatherCatV1.21B27,2013-10-06 11:18:00,
2013-10-06 06:20:00,41.9,37.4,29.95,NW,314,9.0,12.0,84,0.00,,,0.01,0,WeatherCatV1.21B27,2013-10-06 11:20:00,
2013-10-06 06:23:00,41.9,37.4,29.94,NW,311,7.0,14.0,84,0.00,,,0.01,0,WeatherCatV1.21B27,2013-10-06 11:23:00,
2013-10-06 06:25:00,42.0,37.5,29.95,NW,309,6.0,15.0,84,0.00,,,0.01,0,WeatherCatV1.21B27,2013-10-06 11:25:00,
2013-10-06 06:28:00,42.0,37.5,29.95,NW,304,2.0,6.0,84,0.00,,,0.01,0,WeatherCatV1.21B27,2013-10-06 11:28:00,
2013-10-06 06:29:00,42.0,37.5,29.95,West,276,2.0,9.0,84,0.00,,,0.01,0,WeatherCatV1.21B27,2013-10-06 11:29:00,
2013-10-06 06:30:00,42.0,37.5,29.95,West,280,4.0,14.0,84,0.00,,,0.01,0,WeatherCatV1.21B27,2013-10-06 11:30:00,
2013-10-06 06:33:00,42.1,37.6,29.95,WNW,295,6.0,14.0,84,0.00,,,0.01,0,WeatherCatV1.21B27,2013-10-06 11:33:00,
2013-10-06 06:34:00,42.1,37.6,29.95,West,268,6.0,6.0,84,0.00,,,0.01,0,WeatherCatV1.21B27,2013-10-06 11:34:00,
2013-10-06 06:35:00,42.1,37.6,29.95,WNW,302,7.0,15.0,84,0.00,,,0.01,0,WeatherCatV1.21B27,2013-10-06 11:35:00,
2013-10-06 06:39:00,42.2,37.7,29.95,NW,314,4.0,18.0,84,0.00,,,0.01,0,WeatherCatV1.21B27,2013-10-06 11:39:00,
2013-10-06 06:40:00,42.2,37.7,29.95,NW,319,6.0,9.0,84,0.00,,,0.01,0,WeatherCatV1.21B27,2013-10-06 11:40:00,
2013-10-06 06:44:00,42.2,37.7,29.96,WNW,294,4.0,14.0,84,0.00,,,0.01,0,WeatherCatV1.21B27,2013-10-06 11:44:00,
2013-10-06 06:45:00,42.3,37.8,29.96,North,355,5.0,14.0,84,0.00,,,0.01,0,WeatherCatV1.21B27,2013-10-06 11:45:00,
2013-10-06 06:46:00,42.3,37.8,29.96,NNW,336,6.0,11.0,84,0.00,,,0.01,0,WeatherCatV1.21B27,2013-10-06 11:46:00,
2013-10-06 06:49:00,42.3,37.8,29.96,West,272,3.0,7.0,84,0.00,,,0.01,0,WeatherCatV1.21B27,2013-10-06 11:49:00,
2013-10-06 06:50:00,42.3,37.8,29.96,NNW,346,6.0,11.0,84,0.00,,,0.01,0,WeatherCatV1.21B27,2013-10-06 11:50:00,
2013-10-06 06:51:00,42.3,37.8,29.96,NW,310,19.0,19.0,84,0.00,,,0.01,0,WeatherCatV1.21B27,2013-10-06 11:51:00,
2013-10-06 06:54:00,42.3,37.8,29.96,WNW,297,0.0,4.0,84,0.00,,,0.01,0,WeatherCatV1.21B27,2013-10-06 11:54:00,
2013-10-06 06:55:00,42.3,37.8,29.96,WNW,288,5.0,13.0,84,0.00,,,0.01,0,WeatherCatV1.21B27,2013-10-06 11:55:00,
2013-10-06 06:56:00,42.3,37.8,29.96,NW,319,2.0,13.0,84,0.00,,,0.01,0,WeatherCatV1.21B27,2013-10-06 11:56:00,
2013-10-06 06:59:00,42.4,37.9,29.96,West,271,3.0,13.0,84,0.00,,,0.01,0,WeatherCatV1.21B27,2013-10-06 11:59:00,
2013-10-06 07:00:00,42.4,37.9,29.96,West,273,4.0,13.0,84,0.00,,,0.01,0,WeatherCatV1.21B27,2013-10-06 12:00:00,
2013-10-06 07:01:00,42.4,38.2,29.96,NW,315,13.0,14.0,85,0.00,,,0.01,0,WeatherCatV1.21B27,2013-10-06 12:01:00,
2013-10-06 07:04:00,42.4,37.9,29.96,West,280,9.0,9.0,84,0.00,,,0.01,0,WeatherCatV1.21B27,2013-10-06 12:04:00,
2013-10-06 07:05:00,42.4,37.9,29.96,NW,315,2.0,9.0,84,0.00,,,0.01,0,WeatherCatV1.21B27,2013-10-06 12:05:00,
2013-10-06 07:06:00,42.4,37.9,29.96,NNW,330,6.0,9.0,84,0.00,,,0.01,0,WeatherCatV1.21B27,2013-10-06 12:06:00,
2013-10-06 07:10:00,42.4,38.2,29.96,WSW,257,4.0,10.0,85,0.00,,,0.01,0,WeatherCatV1.21B27,2013-10-06 12:10:00,
2013-10-06 07:11:00,42.4,38.2,29.96,NNW,331,4.0,10.0,85,0.00,,,0.01,0,WeatherCatV1.21B27,2013-10-06 12:11:00,
2013-10-06 07:12:00,42.4,38.2,29.96,NW,321,3.0,9.0,85,0.00,,,0.01,0,WeatherCatV1.21B27,2013-10-06 12:12:00,
2013-10-06 07:15:00,42.4,38.2,29.96,NNW,339,2.0,9.0,85,0.00,,,0.01,0,WeatherCatV1.21B27,2013-10-06 12:15:00,
2013-10-06 07:16:00,42.4,38.2,29.96,NW,325,4.0,15.0,85,0.00,,,0.01,0,WeatherCatV1.21B27,2013-10-06 12:16:00,
2013-10-06 07:17:00,42.3,38.1,29.96,NW,325,4.0,15.0,85,0.00,,,0.01,0,WeatherCatV1.21B27,2013-10-06 12:17:00,
2013-10-06 07:20:00,42.2,38.3,29.96,WNW,284,4.0,10.0,86,0.00,,,0.01,0,WeatherCatV1.21B27,2013-10-06 12:20:00,
2013-10-06 07:21:00,42.2,38.0,29.95,NW,325,5.0,12.0,85,0.00,,,0.01,0,WeatherCatV1.21B27,2013-10-06 12:21:00,
2013-10-06 07:22:00,42.2,38.0,29.95,NNW,344,12.0,12.0,85,0.00,,,0.01,0,WeatherCatV1.21B27,2013-10-06 12:22:00,
2013-10-06 07:23:00,42.2,38.3,29.96,NW,323,9.0,12.0,86,0.00,,,0.01,0,WeatherCatV1.21B27,2013-10-06 12:23:00,
2013-10-06 07:25:00,42.2,38.3,29.95,NW,310,5.0,13.0,86,0.00,,,0.01,0,WeatherCatV1.21B27,2013-10-06 12:25:00,
2013-10-06 07:26:00,42.2,38.3,29.96,NW,316,4.0,6.0,86,0.00,,,0.01,0,WeatherCatV1.21B27,2013-10-06 12:26:00,
2013-10-06 07:27:00,42.2,38.3,29.95,NW,315,2.0,6.0,86,0.00,,,0.01,0,WeatherCatV1.21B27,2013-10-06 12:27:00,
2013-10-06 07:28:00,42.3,38.4,29.96,NNW,346,6.0,10.0,86,0.00,,,0.01,0,WeatherCatV1.21B27,2013-10-06 12:28:00,
2013-10-06 07:30:00,42.3,38.4,29.96,WNW,290,2.0,15.0,86,0.00,,,0.01,0,WeatherCatV1.21B27,2013-10-06 12:30:00,
2013-10-06 07:31:00,42.3,38.4,29.96,WNW,288,5.0,12.0,86,0.00,,,0.01,0,WeatherCatV1.21B27,2013-10-06 12:31:00,
2013-10-06 07:32:00,42.3,38.4,29.96,NW,324,7.0,12.0,86,0.00,,,0.01,0,WeatherCatV1.21B27,2013-10-06 12:32:00,
2013-10-06 07:33:00,42.4,38.2,29.97,West,272,7.0,10.0,85,0.00,,,0.01,0,WeatherCatV1.21B27,2013-10-06 12:33:00,
2013-10-06 07:36:00,42.4,38.2,29.96,WNW,298,3.0,10.0,85,0.00,,,0.01,0,WeatherCatV1.21B27,2013-10-06 12:36:00,
2013-10-06 07:37:00,42.5,38.3,29.96,NNW,336,5.0,10.0,85,0.00,,,0.01,0,WeatherCatV1.21B27,2013-10-06 12:37:00,
2013-10-06 07:38:00,42.5,38.3,29.96,West,260,5.0,9.0,85,0.00,,,0.01,0,WeatherCatV1.21B27,2013-10-06 12:38:00,
2013-10-06 07:41:00,42.5,38.3,29.97,North,355,7.0,10.0,85,0.00,,,0.01,0,WeatherCatV1.21B27,2013-10-06 12:41:00,
2013-10-06 07:42:00,42.5,38.3,29.96,NNW,334,9.0,10.0,85,0.00,,,0.01,0,WeatherCatV1.21B27,2013-10-06 12:42:00,
2013-10-06 07:43:00,42.5,38.3,29.96,WNW,301,4.0,10.0,85,0.00,,,0.01,0,WeatherCatV1.21B27,2013-10-06 12:43:00,
2013-10-06 07:44:00,42.5,38.0,29.96,NNW,335,5.0,14.0,84,0.00,,,0.01,5,WeatherCatV1.21B27,2013-10-06 12:44:00,
2013-10-06 07:46:00,42.6,38.1,29.96,WNW,286,4.0,5.0,84,0.00,,,0.01,7,WeatherCatV1.21B27,2013-10-06 12:46:00,
2013-10-06 07:47:00,42.6,38.1,29.96,West,272,5.0,11.0,84,0.00,,,0.01,7,WeatherCatV1.21B27,2013-10-06 12:47:00,
2013-10-06 07:48:00,42.6,38.1,29.96,NNW,331,14.0,14.0,84,0.00,,,0.01,7,WeatherCatV1.21B27,2013-10-06 12:48:00,
2013-10-06 07:49:00,42.6,38.1,29.96,NW,321,4.0,14.0,84,0.00,,,0.01,5,WeatherCatV1.21B27,2013-10-06 12:49:00,
2013-10-06 07:51:00,42.6,38.1,29.96,NW,311,3.0,11.0,84,0.00,,,0.01,5,WeatherCatV1.21B27,2013-10-06 12:51:00,
2013-10-06 07:53:00,42.6,38.1,29.96,WNW,292,3.0,12.0,84,0.00,,,0.01,0,WeatherCatV1.21B27,2013-10-06 12:53:00,
2013-10-06 07:54:00,42.6,38.1,29.96,NW,309,3.0,7.0,84,0.00,,,0.01,0,WeatherCatV1.21B27,2013-10-06 12:54:00,
2013-10-06 07:57:00,42.6,38.1,29.96,West,271,4.0,7.0,84,0.00,,,0.01,5,WeatherCatV1.21B27,2013-10-06 12:57:00,
2013-10-06 07:58:00,42.6,38.1,29.96,WNW,287,7.0,7.0,84,0.00,,,0.01,5,WeatherCatV1.21B27,2013-10-06 12:58:00,
2013-10-06 07:59:00,42.6,38.1,29.96,NW,306,5.0,10.0,84,0.00,,,0.01,7,WeatherCatV1.21B27,2013-10-06 12:59:00,
2013-10-06 08:03:00,42.6,38.1,29.96,WSW,257,3.0,9.0,84,0.00,,,0.01,9,WeatherCatV1.21B27,2013-10-06 13:03:00,
2013-10-06 08:04:00,42.6,38.1,29.96,West,277,13.0,16.0,84,0.00,,,0.01,9,WeatherCatV1.21B27,2013-10-06 13:04:00,
2013-10-06 08:08:00,42.6,38.1,29.96,NW,319,13.0,13.0,84,0.00,,,0.01,14,WeatherCatV1.21B27,2013-10-06 13:08:00,
2013-10-06 08:09:00,42.6,38.1,29.96,NNW,338,10.0,13.0,84,0.00,,,0.01,14,WeatherCatV1.21B27,2013-10-06 13:09:00,
2013-10-06 08:10:00,42.6,38.1,29.96,West,267,3.0,13.0,84,0.00,,,0.01,14,WeatherCatV1.21B27,2013-10-06 13:10:00,
2013-10-06 08:13:00,42.6,38.1,29.96,West,262,2.0,10.0,84,0.00,,,0.01,19,WeatherCatV1.21B27,2013-10-06 13:13:00,
2013-10-06 08:14:00,42.6,38.1,29.96,WNW,300,10.0,10.0,84,0.00,,,0.01,19,WeatherCatV1.21B27,2013-10-06 13:14:00,
2013-10-06 08:15:00,42.6,38.1,29.97,NNW,333,5.0,12.0,84,0.00,,,0.01,21,WeatherCatV1.21B27,2013-10-06 13:15:00,
2013-10-06 08:18:00,42.6,38.1,29.97,NW,314,9.0,12.0,84,0.00,,,0.01,23,WeatherCatV1.21B27,2013-10-06 13:18:00,
2013-10-06 08:19:00,42.6,38.1,29.97,NNW,346,10.0,15.0,84,0.00,,,0.01,25,WeatherCatV1.21B27,2013-10-06 13:19:00,
2013-10-06 08:20:00,42.6,37.8,29.97,NNW,329,4.0,15.0,83,0.00,,,0.01,25,WeatherCatV1.21B27,2013-10-06 13:20:00,
2013-10-06 08:23:00,42.6,37.8,29.97,NNW,336,3.0,15.0,83,0.00,,,0.01,30,WeatherCatV1.21B27,2013-10-06 13:23:00,
2013-10-06 08:24:00,42.6,37.8,29.97,NNW,329,3.0,15.0,83,0.00,,,0.01,30,WeatherCatV1.21B27,2013-10-06 13:24:00,
2013-10-06 08:25:00,42.7,37.9,29.97,NW,317,9.0,12.0,83,0.00,,,0.01,28,WeatherCatV1.21B27,2013-10-06 13:25:00,
2013-10-06 08:28:00,42.6,37.8,29.97,NW,317,5.0,12.0,83,0.00,,,0.01,33,WeatherCatV1.21B27,2013-10-06 13:28:00,
2013-10-06 08:29:00,42.6,37.8,29.97,NW,315,2.0,12.0,83,0.00,,,0.01,33,WeatherCatV1.21B27,2013-10-06 13:29:00,
2013-10-06 08:30:00,42.6,37.8,29.97,NNW,333,4.0,10.0,83,0.00,,,0.01,33,WeatherCatV1.21B27,2013-10-06 13:30:00,
2013-10-06 08:33:00,42.6,37.8,29.97,West,280,6.0,15.0,83,0.00,,,0.01,42,WeatherCatV1.21B27,2013-10-06 13:33:00,
2013-10-06 08:34:00,42.6,37.8,29.97,WNW,300,4.0,15.0,83,0.00,,,0.01,44,WeatherCatV1.21B27,2013-10-06 13:34:00,
2013-10-06 08:35:00,42.6,38.1,29.97,NNW,333,11.0,11.0,84,0.00,,,0.01,44,WeatherCatV1.21B27,2013-10-06 13:35:00,
2013-10-06 08:36:00,42.6,37.8,29.97,NNW,329,6.0,18.0,83,0.00,,,0.01,42,WeatherCatV1.21B27,2013-10-06 13:36:00,
2013-10-06 08:39:00,42.5,37.7,29.98,NW,326,1.0,11.0,83,0.00,,,0.01,32,WeatherCatV1.21B27,2013-10-06 13:39:00,
2013-10-06 08:40:00,42.5,38.0,29.97,NW,310,4.0,10.0,84,0.00,,,0.01,30,WeatherCatV1.21B27,2013-10-06 13:40:00,
2013-10-06 08:41:00,42.5,38.0,29.97,WNW,302,3.0,10.0,84,0.00,,,0.01,28,WeatherCatV1.21B27,2013-10-06 13:41:00,
2013-10-06 08:44:00,42.5,38.0,29.97,NW,311,4.0,10.0,84,0.00,,,0.01,32,WeatherCatV1.21B27,2013-10-06 13:44:00,
2013-10-06 08:45:00,42.4,37.9,29.98,West,268,11.0,11.0,84,0.00,,,0.01,32,WeatherCatV1.21B27,2013-10-06 13:45:00,
2013-10-06 08:46:00,42.4,37.9,29.98,North,0,7.0,16.0,84,0.00,,,0.01,30,WeatherCatV1.21B27,2013-10-06 13:46:00,
2013-10-06 08:49:00,42.4,37.9,29.98,NNW,327,4.0,13.0,84,0.00,,,0.01,30,WeatherCatV1.21B27,2013-10-06 13:49:00,
2013-10-06 08:50:00,42.4,37.9,29.98,WNW,301,6.0,11.0,84,0.00,,,0.01,33,WeatherCatV1.21B27,2013-10-06 13:50:00,
2013-10-06 08:51:00,42.4,37.9,29.97,WNW,283,10.0,11.0,84,0.00,,,0.01,39,WeatherCatV1.21B27,2013-10-06 13:51:00,
2013-10-06 08:53:00,42.5,38.0,29.98,WNW,294,5.0,9.0,84,0.00,,,0.01,44,WeatherCatV1.21B27,2013-10-06 13:53:00,
2013-10-06 08:54:00,42.5,38.0,29.98,North,355,4.0,11.0,84,0.00,,,0.01,42,WeatherCatV1.21B27,2013-10-06 13:54:00,
2013-10-06 08:55:00,42.5,38.0,29.98,NW,325,7.0,11.0,84,0.00,,,0.01,42,WeatherCatV1.21B27,2013-10-06 13:55:00,
2013-10-06 08:56:00,42.5,38.0,29.98,WNW,284,3.0,11.0,84,0.00,,,0.01,39,WeatherCatV1.21B27,2013-10-06 13:56:00,
2013-10-06 08:58:00,42.6,37.8,29.98,NNW,338,4.0,15.0,83,0.00,,,0.01,40,WeatherCatV1.21B27,2013-10-06 13:58:00,
2013-10-06 08:59:00,42.6,37.8,29.98,West,267,4.0,9.0,83,0.00,,,0.01,40,WeatherCatV1.21B27,2013-10-06 13:59:00,
2013-10-06 09:00:00,42.6,37.8,29.98,WNW,303,5.0,6.0,83,0.00,,,0.01,40,WeatherCatV1.21B27,2013-10-06 14:00:00,
2013-10-06 09:01:00,42.6,37.8,29.98,WNW,290,4.0,7.0,83,0.00,,,0.01,42,WeatherCatV1.21B27,2013-10-06 14:01:00,
2013-10-06 09:03:00,42.7,37.9,29.98,NW,322,12.0,15.0,83,0.00,,,0.01,54,WeatherCatV1.21B27,2013-10-06 14:03:00,
2013-10-06 09:04:00,42.7,37.9,29.98,WNW,294,4.0,15.0,83,0.00,,,0.01,60,WeatherCatV1.21B27,2013-10-06 14:04:00,
2013-10-06 09:05:00,42.7,37.6,29.98,WNW,283,3.0,15.0,82,0.00,,,0.01,60,WeatherCatV1.21B27,2013-10-06 14:05:00,
2013-10-06 09:06:00,42.7,37.6,29.98,North,0,4.0,7.0,82,0.00,,,0.01,70,WeatherCatV1.21B27,2013-10-06 14:06:00,
2013-10-06 09:07:00,42.8,37.7,29.98,WNW,298,4.0,12.0,82,0.00,,,0.01,84,WeatherCatV1.21B27,2013-10-06 14:07:00,
2013-10-06 09:09:00,42.8,37.7,29.98,West,269,4.0,12.0,82,0.00,,,0.01,86,WeatherCatV1.21B27,2013-10-06 14:09:00,
2013-10-06 09:10:00,42.9,37.8,29.98,NW,323,13.0,15.0,82,0.00,,,0.01,81,WeatherCatV1.21B27,2013-10-06 14:10:00,
2013-10-06 09:11:00,42.9,37.8,29.98,NNW,343,11.0,16.0,82,0.00,,,0.01,70,WeatherCatV1.21B27,2013-10-06 14:11:00,
2013-10-06 09:13:00,43.0,37.6,29.98,WNW,286,11.0,15.0,81,0.00,,,0.01,62,WeatherCatV1.21B27,2013-10-06 14:13:00,
2013-10-06 09:14:00,43.0,37.6,29.98,WNW,287,7.0,15.0,81,0.00,,,0.01,62,WeatherCatV1.21B27,2013-10-06 14:14:00,
2013-10-06 09:15:00,43.0,37.6,29.98,WNW,299,5.0,11.0,81,0.00,,,0.01,60,WeatherCatV1.21B27,2013-10-06 14:15:00,
2013-10-06 09:16:00,43.0,37.6,29.99,NNW,329,6.0,11.0,81,0.00,,,0.01,60,WeatherCatV1.21B27,2013-10-06 14:16:00,
2013-10-06 09:19:00,43.0,37.3,29.98,NW,323,4.0,7.0,80,0.00,,,0.01,62,WeatherCatV1.21B27,2013-10-06 14:19:00,
2013-10-06 09:20:00,43.1,37.4,29.98,WNW,292,10.0,13.0,80,0.00,,,0.01,70,WeatherCatV1.21B27,2013-10-06 14:20:00,
2013-10-06 09:21:00,43.1,37.4,29.98,NNW,331,11.0,16.0,80,0.00,,,0.01,70,WeatherCatV1.21B27,2013-10-06 14:21:00,
2013-10-06 09:22:00,43.1,37.4,29.98,NNW,328,4.0,16.0,80,0.00,,,0.01,74,WeatherCatV1.21B27,2013-10-06 14:22:00,
2013-10-06 09:24:00,43.1,37.4,29.98,NNW,334,4.0,12.0,80,0.00,,,0.01,81,WeatherCatV1.21B27,2013-10-06 14:24:00,
2013-10-06 09:26:00,43.2,37.5,29.98,NW,313,4.0,15.0,80,0.00,,,0.01,97,WeatherCatV1.21B27,2013-10-06 14:26:00,
2013-10-06 09:27:00,43.2,37.1,29.98,NW,310,10.0,15.0,79,0.00,,,0.01,93,WeatherCatV1.21B27,2013-10-06 14:27:00,
2013-10-06 09:29:00,43.2,36.8,29.98,WNW,300,3.0,18.0,78,0.00,,,0.01,93,WeatherCatV1.21B27,2013-10-06 14:29:00,
2013-10-06 09:30:00,43.2,36.8,29.98,NW,319,9.0,10.0,78,0.00,,,0.01,93,WeatherCatV1.21B27,2013-10-06 14:30:00,
2013-10-06 09:31:00,43.2,36.8,29.98,NW,315,4.0,10.0,78,0.00,,,0.01,97,WeatherCatV1.21B27,2013-10-06 14:31:00,
2013-10-06 09:32:00,43.3,36.9,29.98,NW,320,7.0,13.0,78,0.00,,,0.01,97,WeatherCatV1.21B27,2013-10-06 14:32:00,
2013-10-06 09:34:00,43.3,36.9,29.98,West,279,6.0,13.0,78,0.00,,,0.01,83,WeatherCatV1.21B27,2013-10-06 14:34:00,
2013-10-06 09:35:00,43.3,36.9,29.98,WNW,284,7.0,13.0,78,0.00,,,0.01,86,WeatherCatV1.21B27,2013-10-06 14:35:00,
2013-10-06 09:36:00,43.4,37.0,29.98,NW,322,18.0,18.0,78,0.00,,,0.01,86,WeatherCatV1.21B27,2013-10-06 14:36:00,
2013-10-06 09:37:00,43.4,37.0,29.99,NW,308,4.0,18.0,78,0.00,,,0.01,86,WeatherCatV1.21B27,2013-10-06 14:37:00,
2013-10-06 09:39:00,43.4,36.7,29.98,West,276,12.0,12.0,77,0.00,,,0.01,90,WeatherCatV1.21B27,2013-10-06 14:39:00,
2013-10-06 09:40:00,43.4,36.7,29.98,NW,322,12.0,12.0,77,0.00,,,0.01,90,WeatherCatV1.21B27,2013-10-06 14:40:00,
2013-10-06 09:41:00,43.4,36.7,29.99,NNW,343,13.0,13.0,77,0.00,,,0.01,91,WeatherCatV1.21B27,2013-10-06 14:41:00,
2013-10-06 09:42:00,43.4,36.7,29.99,WNW,284,9.0,21.0,77,0.00,,,0.01,95,WeatherCatV1.21B27,2013-10-06 14:42:00,
2013-10-06 09:45:00,43.5,36.8,29.99,NW,307,6.0,9.0,77,0.00,,,0.01,102,WeatherCatV1.21B27,2013-10-06 14:45:00,
2013-10-06 09:46:00,43.6,36.9,29.99,NNW,331,12.0,18.0,77,0.00,,,0.01,105,WeatherCatV1.21B27,2013-10-06 14:46:00,
2013-10-06 09:47:00,43.6,36.5,29.99,NW,323,10.0,18.0,76,0.00,,,0.01,105,WeatherCatV1.21B27,2013-10-06 14:47:00,
2013-10-06 09:48:00,43.6,36.5,29.99,WNW,284,4.0,10.0,76,0.00,,,0.01,109,WeatherCatV1.21B27,2013-10-06 14:48:00,
2013-10-06 09:50:00,43.6,36.5,29.99,NW,321,8.0,12.0,76,0.00,,,0.01,121,WeatherCatV1.21B27,2013-10-06 14:50:00,
2013-10-06 09:51:00,43.6,36.5,29.99,NW,315,4.0,12.0,76,0.00,,,0.01,121,WeatherCatV1.21B27,2013-10-06 14:51:00,
2013-10-06 09:52:00,43.7,37.0,29.98,North,351,12.0,12.0,77,0.00,,,0.01,134,WeatherCatV1.21B27,2013-10-06 14:52:00,
2013-10-06 09:53:00,43.7,36.6,29.99,NW,309,3.0,18.0,76,0.00,,,0.01,142,WeatherCatV1.21B27,2013-10-06 14:53:00,
2013-10-06 09:55:00,43.8,36.7,29.99,NW,304,2.0,8.0,76,0.00,,,0.01,160,WeatherCatV1.21B27,2013-10-06 14:55:00,
2013-10-06 09:56:00,43.8,36.7,29.98,WSW,254,9.0,17.0,76,0.00,,,0.01,169,WeatherCatV1.21B27,2013-10-06 14:56:00,
2013-10-06 09:57:00,43.9,36.8,29.98,NW,304,5.0,17.0,76,0.00,,,0.01,172,WeatherCatV1.21B27,2013-10-06 14:57:00,
2013-10-06 09:58:00,43.9,36.8,29.98,NW,317,3.0,10.0,76,0.00,,,0.01,162,WeatherCatV1.21B27,2013-10-06 14:58:00,
2013-10-06 10:00:00,44.0,36.9,29.99,NW,307,4.0,15.0,76,0.00,,,0.01,160,WeatherCatV1.21B27,2013-10-06 15:00:00,
2013-10-06 10:01:00,44.0,36.9,29.98,West,266,10.0,15.0,76,0.00,,,0.01,165,WeatherCatV1.21B27,2013-10-06 15:01:00,
2013-10-06 10:02:00,44.0,36.6,29.98,WNW,301,5.0,11.0,75,0.00,,,0.01,169,WeatherCatV1.21B27,2013-10-06 15:02:00,
2013-10-06 10:03:00,44.0,36.6,29.98,WNW,289,4.0,16.0,75,0.00,,,0.01,172,WeatherCatV1.21B27,2013-10-06 15:03:00,
2013-10-06 10:05:00,44.1,36.7,29.98,NW,322,7.0,14.0,75,0.00,,,0.01,167,WeatherCatV1.21B27,2013-10-06 15:05:00,
2013-10-06 10:06:00,44.2,36.8,29.98,WNW,293,8.0,14.0,75,0.00,,,0.01,163,WeatherCatV1.21B27,2013-10-06 15:06:00,
2013-10-06 10:07:00,44.2,36.8,29.98,WNW,302,8.0,16.0,75,0.00,,,0.01,162,WeatherCatV1.21B27,2013-10-06 15:07:00,
2013-10-06 10:08:00,44.2,36.8,29.99,WNW,284,13.0,16.0,75,0.00,,,0.01,163,WeatherCatV1.21B27,2013-10-06 15:08:00,
2013-10-06 10:09:00,44.2,36.8,29.99,NW,317,13.0,18.0,75,0.00,,,0.01,167,WeatherCatV1.21B27,2013-10-06 15:09:00,
2013-10-06 10:10:00,44.3,36.5,29.99,NNW,336,13.0,13.0,74,0.00,,,0.01,174,WeatherCatV1.21B27,2013-10-06 15:10:00,
2013-10-06 10:11:00,44.3,36.5,29.99,WSW,248,10.0,13.0,74,0.00,,,0.01,174,WeatherCatV1.21B27,2013-10-06 15:11:00,
2013-10-06 10:12:00,44.3,36.5,29.99,West,272,5.0,15.0,74,0.00,,,0.01,207,WeatherCatV1.21B27,2013-10-06 15:12:00,
2013-10-06 10:13:00,44.3,36.5,29.99,WNW,291,5.0,15.0,74,0.00,,,0.01,207,WeatherCatV1.21B27,2013-10-06 15:13:00,
2013-10-06 10:14:00,44.4,36.6,29.99,WSW,255,2.0,13.0,74,0.00,,,0.01,230,WeatherCatV1.21B27,2013-10-06 15:14:00,
2013-10-06 10:16:00,44.5,36.7,29.99,North,349,4.0,9.0,74,0.00,,,0.01,285,WeatherCatV1.21B27,2013-10-06 15:16:00,
2013-10-06 10:17:00,44.7,37.3,29.99,WNW,303,6.0,16.0,75,0.00,,,0.01,285,WeatherCatV1.21B27,2013-10-06 15:17:00,
2013-10-06 10:18:00,44.7,36.9,29.99,WNW,302,5.0,16.0,74,0.00,,,0.01,285,WeatherCatV1.21B27,2013-10-06 15:18:00,
2013-10-06 10:20:00,44.9,36.8,29.99,NNW,348,3.0,17.0,73,0.00,,,0.01,299,WeatherCatV1.21B27,2013-10-06 15:20:00,
2013-10-06 10:21:00,44.9,36.4,29.99,NW,323,10.0,22.0,72,0.00,,,0.01,287,WeatherCatV1.21B27,2013-10-06 15:21:00,
2013-10-06 10:22:00,45.0,36.5,29.99,WNW,283,6.0,22.0,72,0.00,,,0.01,278,WeatherCatV1.21B27,2013-10-06 15:22:00,
2013-10-06 10:23:00,45.0,36.5,29.99,WNW,302,5.0,22.0,72,0.00,,,0.01,265,WeatherCatV1.21B27,2013-10-06 15:23:00,
2013-10-06 10:25:00,45.2,37.1,29.99,WNW,298,4.0,7.0,73,0.00,,,0.01,213,WeatherCatV1.21B27,2013-10-06 15:25:00,
2013-10-06 10:26:00,45.2,37.1,29.99,North,0,4.0,9.0,73,0.00,,,0.01,213,WeatherCatV1.21B27,2013-10-06 15:26:00,
2013-10-06 10:27:00,45.2,37.1,29.99,NW,317,11.0,16.0,73,0.00,,,0.01,216,WeatherCatV1.21B27,2013-10-06 15:27:00,
2013-10-06 10:28:00,45.2,36.7,29.99,WNW,300,13.0,16.0,72,0.00,,,0.01,213,WeatherCatV1.21B27,2013-10-06 15:28:00,
2013-10-06 10:31:00,45.2,36.7,30.00,NW,313,12.0,19.0,72,0.00,,,0.01,241,WeatherCatV1.21B27,2013-10-06 15:31:00,
2013-10-06 10:32:00,45.2,36.7,30.00,WNW,286,13.0,19.0,72,0.00,,,0.01,241,WeatherCatV1.21B27,2013-10-06 15:32:00,
2013-10-06 10:33:00,45.2,36.7,30.00,NNE,14,9.0,15.0,72,0.00,,,0.01,241,WeatherCatV1.21B27,2013-10-06 15:33:00,
2013-10-06 10:36:00,45.4,36.9,30.00,NW,319,5.0,6.0,72,0.00,,,0.01,190,WeatherCatV1.21B27,2013-10-06 15:36:00,
2013-10-06 10:37:00,45.4,37.3,30.00,WNW,303,4.0,12.0,73,0.00,,,0.01,186,WeatherCatV1.21B27,2013-10-06 15:37:00,
2013-10-06 10:38:00,45.5,37.4,30.00,NNW,331,6.0,12.0,73,0.00,,,0.01,190,WeatherCatV1.21B27,2013-10-06 15:38:00,
2013-10-06 10:41:00,45.6,37.1,30.00,WNW,300,10.0,13.0,72,0.00,,,0.01,327,WeatherCatV1.21B27,2013-10-06 15:41:00,
2013-10-06 10:42:00,45.6,37.1,30.00,NW,324,10.0,13.0,72,0.00,,,0.01,327,WeatherCatV1.21B27,2013-10-06 15:42:00,
2013-10-06 10:43:00,45.7,37.2,30.00,North,355,6.0,13.0,72,0.00,,,0.01,341,WeatherCatV1.21B27,2013-10-06 15:43:00,
2013-10-06 10:44:00,45.7,37.2,30.00,North,0,9.0,12.0,72,0.00,,,0.01,320,WeatherCatV1.21B27,2013-10-06 15:44:00,
2013-10-06 10:46:00,45.9,37.4,30.00,NW,313,6.0,13.0,72,0.00,,,0.01,211,WeatherCatV1.21B27,2013-10-06 15:46:00,
2013-10-06 10:47:00,46.0,37.5,30.00,NNW,330,9.0,17.0,72,0.00,,,0.01,204,WeatherCatV1.21B27,2013-10-06 15:47:00,
2013-10-06 10:48:00,46.0,37.5,30.00,WNW,291,4.0,17.0,72,0.00,,,0.01,199,WeatherCatV1.21B27,2013-10-06 15:48:00,
2013-10-06 10:49:00,46.0,37.5,30.00,NW,304,8.0,17.0,72,0.00,,,0.01,199,WeatherCatV1.21B27,2013-10-06 15:49:00,
2013-10-06 10:51:00,46.0,37.1,30.00,NW,315,18.0,21.0,71,0.00,,,0.01,183,WeatherCatV1.21B27,2013-10-06 15:51:00,
2013-10-06 10:53:00,45.9,37.0,30.00,West,271,3.0,21.0,71,0.00,,,0.01,202,WeatherCatV1.21B27,2013-10-06 15:53:00,
2013-10-06 10:54:00,45.9,37.0,30.00,West,271,6.0,22.0,71,0.00,,,0.01,209,WeatherCatV1.21B27,2013-10-06 15:54:00,
2013-10-06 10:56:00,45.8,36.9,30.00,North,355,10.0,13.0,71,0.00,,,0.01,223,WeatherCatV1.21B27,2013-10-06 15:56:00,
2013-10-06 10:58:00,45.8,36.9,30.00,WNW,300,5.0,18.0,71,0.00,,,0.01,229,WeatherCatV1.21B27,2013-10-06 15:58:00,
2013-10-06 10:59:00,45.8,36.9,30.00,NW,304,5.0,18.0,71,0.00,,,0.01,234,WeatherCatV1.21B27,2013-10-06 15:59:00,
2013-10-06 11:00:00,45.9,37.0,30.00,NNW,339,14.0,14.0,71,0.00,,,0.01,236,WeatherCatV1.21B27,2013-10-06 16:00:00,
2013-10-06 11:02:00,45.8,36.6,30.00,NW,322,4.0,17.0,70,0.00,,,0.02,264,WeatherCatV1.21B27,2013-10-06 16:02:00,
2013-10-06 11:03:00,45.9,37.0,30.00,NNE,13,9.0,11.0,71,0.00,,,0.02,269,WeatherCatV1.21B27,2013-10-06 16:03:00,
2013-10-06 11:04:00,45.9,37.0,30.00,NW,311,3.0,11.0,71,0.00,,,0.02,271,WeatherCatV1.21B27,2013-10-06 16:04:00,
2013-10-06 11:05:00,46.0,37.1,30.00,NW,310,5.0,11.0,71,0.00,,,0.02,278,WeatherCatV1.21B27,2013-10-06 16:05:00,
2013-10-06 11:07:00,46.1,37.2,30.00,NNW,344,9.0,15.0,71,0.00,,,0.02,283,WeatherCatV1.21B27,2013-10-06 16:07:00,
2013-10-06 11:08:00,46.3,37.4,30.00,WNW,295,9.0,16.0,71,0.00,,,0.02,295,WeatherCatV1.21B27,2013-10-06 16:08:00,
2013-10-06 11:09:00,46.3,37.4,30.00,SSW,200,5.0,15.0,71,0.00,,,0.02,295,WeatherCatV1.21B27,2013-10-06 16:09:00,
2013-10-06 11:10:00,46.4,37.5,30.00,NNW,340,6.0,11.0,71,0.00,,,0.02,285,WeatherCatV1.21B27,2013-10-06 16:10:00,
2013-10-06 11:12:00,46.4,37.5,30.00,NW,309,15.0,20.0,71,0.00,,,0.02,295,WeatherCatV1.21B27,2013-10-06 16:12:00,
2013-10-06 11:14:00,46.5,37.2,30.00,NNW,338,6.0,15.0,70,0.00,,,0.02,330,WeatherCatV1.21B27,2013-10-06 16:14:00,
2013-10-06 11:15:00,46.6,37.3,30.00,NW,309,3.0,6.0,70,0.00,,,0.02,332,WeatherCatV1.21B27,2013-10-06 16:15:00,
2013-10-06 11:17:00,46.8,37.5,30.00,NNW,328,7.0,15.0,70,0.00,,,0.02,311,WeatherCatV1.21B27,2013-10-06 16:17:00,
2013-10-06 11:19:00,46.9,37.3,30.00,NNW,341,18.0,18.0,69,0.00,,,0.02,315,WeatherCatV1.21B27,2013-10-06 16:19:00,
2013-10-06 11:20:00,46.9,37.3,30.00,NW,317,4.0,18.0,69,0.00,,,0.02,325,WeatherCatV1.21B27,2013-10-06 16:20:00,
2013-10-06 11:21:00,47.0,37.4,30.00,NW,314,7.0,13.0,69,0.00,,,0.02,339,WeatherCatV1.21B27,2013-10-06 16:21:00,
2013-10-06 11:22:00,47.0,37.4,30.00,NW,326,4.0,10.0,69,0.00,,,0.02,330,WeatherCatV1.21B27,2013-10-06 16:22:00,
2013-10-06 11:24:00,47.2,37.6,30.01,NNE,12,5.0,18.0,69,0.00,,,0.02,330,WeatherCatV1.21B27,2013-10-06 16:24:00,
2013-10-06 11:25:00,47.2,37.2,30.00,NW,322,3.0,13.0,68,0.00,,,0.02,336,WeatherCatV1.21B27,2013-10-06 16:25:00,
2013-10-06 11:26:00,47.3,37.3,30.00,NW,321,11.0,11.0,68,0.00,,,0.02,339,WeatherCatV1.21B27,2013-10-06 16:26:00,
2013-10-06 11:27:00,47.4,37.4,30.00,NW,311,11.0,13.0,68,0.00,,,0.02,353,WeatherCatV1.21B27,2013-10-06 16:27:00,
2013-10-06 11:29:00,47.6,37.9,30.00,NNW,333,10.0,10.0,69,0.00,,,0.02,473,WeatherCatV1.21B27,2013-10-06 16:29:00,
2013-10-06 11:30:00,47.7,37.7,30.00,NW,325,5.0,18.0,68,0.00,,,0.02,473,WeatherCatV1.21B27,2013-10-06 16:30:00,
2013-10-06 11:31:00,47.8,37.8,30.00,NW,317,9.0,18.0,68,0.00,,,0.02,425,WeatherCatV1.21B27,2013-10-06 16:31:00,
2013-10-06 11:32:00,48.0,38.0,30.00,NW,315,6.0,6.0,68,0.00,,,0.02,396,WeatherCatV1.21B27,2013-10-06 16:32:00,
2013-10-06 11:34:00,48.3,38.2,30.00,WNW,303,7.0,15.0,68,0.00,,,0.02,362,WeatherCatV1.21B27,2013-10-06 16:34:00,
2013-10-06 11:35:00,48.3,37.9,30.00,WNW,288,12.0,17.0,67,0.00,,,0.02,364,WeatherCatV1.21B27,2013-10-06 16:35:00,
2013-10-06 11:36:00,48.3,37.5,30.00,WNW,303,15.0,17.0,66,0.00,,,0.02,353,WeatherCatV1.21B27,2013-10-06 16:36:00,
2013-10-06 11:37:00,48.4,38.0,30.00,North,349,14.0,15.0,67,0.00,,,0.02,360,WeatherCatV1.21B27,2013-10-06 16:37:00,
2013-10-06 11:40:00,48.5,38.0,30.00,NW,323,7.0,12.0,67,0.00,,,0.02,346,WeatherCatV1.21B27,2013-10-06 16:40:00,
2013-10-06 11:41:00,48.6,38.1,30.00,NNW,347,3.0,14.0,67,0.00,,,0.02,374,WeatherCatV1.21B27,2013-10-06 16:41:00,
2013-10-06 11:42:00,48.7,37.9,30.01,NNW,334,10.0,17.0,66,0.00,,,0.02,411,WeatherCatV1.21B27,2013-10-06 16:42:00,
2013-10-06 11:45:00,49.0,37.8,30.01,NNW,343,11.0,21.0,65,0.00,,,0.02,726,WeatherCatV1.21B27,2013-10-06 16:45:00,
2013-10-06 11:46:00,49.0,37.4,30.00,NW,307,7.0,21.0,64,0.00,,,0.02,675,WeatherCatV1.21B27,2013-10-06 16:46:00,
2013-10-06 11:47:00,49.1,37.5,30.01,North,355,5.0,14.0,64,0.00,,,0.02,675,WeatherCatV1.21B27,2013-10-06 16:47:00,
2013-10-06 11:50:00,49.4,38.1,30.01,NW,321,10.0,18.0,65,0.00,,,0.02,570,WeatherCatV1.21B27,2013-10-06 16:50:00,
2013-10-06 11:51:00,49.5,38.2,30.00,NNW,330,5.0,11.0,65,0.00,,,0.02,570,WeatherCatV1.21B27,2013-10-06 16:51:00,
2013-10-06 11:52:00,49.6,38.3,30.01,NW,325,4.0,11.0,65,0.00,,,0.02,570,WeatherCatV1.21B27,2013-10-06 16:52:00,
2013-10-06 11:53:00,49.8,38.5,30.01,WNW,289,4.0,9.0,65,0.00,,,0.02,570,WeatherCatV1.21B27,2013-10-06 16:53:00,
2013-10-06 11:55:00,50.1,38.0,30.00,WNW,296,2.0,15.0,63,0.00,,,0.02,469,WeatherCatV1.21B27,2013-10-06 16:55:00,
2013-10-06 11:56:00,50.2,38.5,30.00,WNW,283,5.0,15.0,64,0.00,,,0.02,494,WeatherCatV1.21B27,2013-10-06 16:56:00,
2013-10-06 11:57:00,50.2,38.1,30.00,NNW,342,3.0,15.0,63,0.00,,,0.02,494,WeatherCatV1.21B27,2013-10-06 16:57:00,
2013-10-06 11:58:00,50.3,38.2,30.00,WNW,296,16.0,16.0,63,0.00,,,0.02,504,WeatherCatV1.21B27,2013-10-06 16:58:00,
2013-10-06 12:01:00,50.1,37.6,30.00,NW,321,9.0,15.0,62,0.00,,,0.02,715,WeatherCatV1.21B27,2013-10-06 17:01:00,
2013-10-06 12:02:00,50.2,38.1,30.00,NNW,347,3.0,15.0,63,0.00,,,0.02,715,WeatherCatV1.21B27,2013-10-06 17:02:00,
2013-10-06 12:03:00,50.3,38.6,30.00,NW,311,2.0,10.0,64,0.00,,,0.02,708,WeatherCatV1.21B27,2013-10-06 17:03:00,
2013-10-06 12:06:00,50.8,38.2,30.00,NNW,329,9.0,17.0,62,0.00,,,0.02,679,WeatherCatV1.21B27,2013-10-06 17:06:00,
2013-10-06 12:07:00,50.8,38.2,30.00,NW,321,12.0,17.0,62,0.00,,,0.02,680,WeatherCatV1.21B27,2013-10-06 17:07:00,
2013-10-06 12:08:00,50.7,37.8,30.00,NW,317,15.0,20.0,61,0.00,,,0.02,682,WeatherCatV1.21B27,2013-10-06 17:08:00,
2013-10-06 12:09:00,50.6,37.7,30.00,NW,313,8.0,20.0,61,0.00,,,0.02,682,WeatherCatV1.21B27,2013-10-06 17:09:00,
2013-10-06 12:12:00,50.7,37.8,30.00,NW,311,7.0,15.0,61,0.00,,,0.02,687,WeatherCatV1.21B27,2013-10-06 17:12:00,
2013-10-06 12:13:00,50.8,38.2,30.00,WNW,300,5.0,13.0,62,0.00,,,0.02,691,WeatherCatV1.21B27,2013-10-06 17:13:00,
2013-10-06 12:14:00,50.8,37.8,29.99,NW,319,13.0,17.0,61,0.00,,,0.02,691,WeatherCatV1.21B27,2013-10-06 17:14:00,
2013-10-06 12:17:00,51.0,38.4,29.99,WNW,290,18.0,18.0,62,0.00,,,0.02,689,WeatherCatV1.21B27,2013-10-06 17:17:00,
2013-10-06 12:18:00,51.2,38.2,30.00,NW,313,5.0,18.0,61,0.00,,,0.02,691,WeatherCatV1.21B27,2013-10-06 17:18:00,
2013-10-06 12:19:00,51.4,38.8,29.99,North,355,3.0,7.0,62,0.00,,,0.02,691,WeatherCatV1.21B27,2013-10-06 17:19:00,
2013-10-06 12:22:00,52.0,39.4,29.99,West,269,12.0,14.0,62,0.00,,,0.02,694,WeatherCatV1.21B27,2013-10-06 17:22:00,
2013-10-06 12:23:00,52.3,39.2,29.99,NNW,344,5.0,12.0,61,0.00,,,0.02,694,WeatherCatV1.21B27,2013-10-06 17:23:00,
2013-10-06 12:25:00,52.6,39.1,29.99,WNW,294,4.0,18.0,60,0.00,,,0.02,698,WeatherCatV1.21B27,2013-10-06 17:25:00,
2013-10-06 12:27:00,53.0,39.5,29.99,NNW,327,12.0,15.0,60,0.00,,,0.02,701,WeatherCatV1.21B27,2013-10-06 17:27:00,
2013-10-06 12:28:00,53.1,39.6,29.99,West,267,11.0,15.0,60,0.00,,,0.02,701,WeatherCatV1.21B27,2013-10-06 17:28:00,
2013-10-06 12:29:00,53.2,39.2,29.99,NNW,340,12.0,15.0,59,0.00,,,0.02,701,WeatherCatV1.21B27,2013-10-06 17:29:00,
2013-10-06 12:30:00,53.2,38.8,29.99,NW,310,10.0,17.0,58,0.00,,,0.02,705,WeatherCatV1.21B27,2013-10-06 17:30:00,
2013-10-06 12:32:00,53.3,38.9,29.99,North,355,4.0,14.0,58,0.00,,,0.02,705,WeatherCatV1.21B27,2013-10-06 17:32:00,
2013-10-06 12:33:00,53.3,38.9,29.99,NNW,341,9.0,14.0,58,0.00,,,0.02,705,WeatherCatV1.21B27,2013-10-06 17:33:00,
2013-10-06 12:34:00,53.3,39.3,29.99,North,355,11.0,13.0,59,0.00,,,0.02,707,WeatherCatV1.21B27,2013-10-06 17:34:00,
2013-10-06 12:35:00,53.4,39.0,29.98,NNW,334,10.0,13.0,58,0.00,,,0.02,707,WeatherCatV1.21B27,2013-10-06 17:35:00,
2013-10-06 12:37:00,53.6,39.2,29.99,NW,309,21.0,21.0,58,0.00,,,0.02,708,WeatherCatV1.21B27,2013-10-06 17:37:00,
2013-10-06 12:38:00,53.7,39.3,29.99,North,355,10.0,21.0,58,0.00,,,0.02,708,WeatherCatV1.21B27,2013-10-06 17:38:00,
2013-10-06 12:39:00,53.8,38.9,29.99,NW,306,9.0,21.0,57,0.00,,,0.02,710,WeatherCatV1.21B27,2013-10-06 17:39:00,
2013-10-06 12:40:00,53.9,39.0,29.99,NW,309,15.0,18.0,57,0.00,,,0.02,710,WeatherCatV1.21B27,2013-10-06 17:40:00,
2013-10-06 12:42:00,54.1,39.2,29.99,NW,304,7.0,16.0,57,0.00,,,0.02,712,WeatherCatV1.21B27,2013-10-06 17:42:00,
2013-10-06 12:43:00,54.2,40.2,29.99,NW,314,11.0,16.0,59,0.00,,,0.02,712,WeatherCatV1.21B27,2013-10-06 17:43:00,
2013-10-06 12:44:00,54.2,40.2,29.99,WNW,284,13.0,16.0,59,0.00,,,0.02,712,WeatherCatV1.21B27,2013-10-06 17:44:00,
2013-10-06 12:45:00,54.4,39.5,29.99,NW,326,7.0,14.0,57,0.00,,,0.02,715,WeatherCatV1.21B27,2013-10-06 17:45:00,
2013-10-06 12:48:00,54.7,39.8,29.99,NNW,327,7.0,14.0,57,0.00,,,0.02,717,WeatherCatV1.21B27,2013-10-06 17:48:00,
2013-10-06 12:49:00,54.8,39.4,29.99,WNW,291,6.0,10.0,56,0.00,,,0.02,717,WeatherCatV1.21B27,2013-10-06 17:49:00,
2013-10-06 12:51:00,54.9,39.5,29.98,NW,304,11.0,13.0,56,0.00,,,0.02,719,WeatherCatV1.21B27,2013-10-06 17:51:00,
2013-10-06 12:53:00,54.9,39.5,29.99,WNW,286,9.0,15.0,56,0.00,,,0.02,721,WeatherCatV1.21B27,2013-10-06 17:53:00,
2013-10-06 12:54:00,54.9,39.5,29.99,WNW,298,7.0,15.0,56,0.00,,,0.02,721,WeatherCatV1.21B27,2013-10-06 17:54:00,
2013-10-06 12:55:00,54.9,39.5,29.99,NW,325,14.0,14.0,56,0.00,,,0.02,719,WeatherCatV1.21B27,2013-10-06 17:55:00,
2013-10-06 12:56:00,55.0,39.1,29.99,NW,316,9.0,14.0,55,0.00,,,0.02,719,WeatherCatV1.21B27,2013-10-06 17:56:00,
2013-10-06 12:59:00,55.2,39.8,29.98,NW,321,6.0,12.0,56,0.00,,,0.02,722,WeatherCatV1.21B27,2013-10-06 17:59:00,
2013-10-06 13:00:00,55.4,40.4,29.99,NW,306,4.0,12.0,57,0.00,,,0.02,722,WeatherCatV1.21B27,2013-10-06 18:00:00,
2013-10-06 13:01:00,55.8,40.8,29.99,NW,313,9.0,12.0,57,0.00,,,0.02,722,WeatherCatV1.21B27,2013-10-06 18:01:00,
2013-10-06 13:04:00,55.8,39.4,29.99,NW,322,10.0,20.0,54,0.00,,,0.02,724,WeatherCatV1.21B27,2013-10-06 18:04:00,
2013-10-06 13:05:00,55.8,39.4,29.98,NW,319,13.0,19.0,54,0.00,,,0.02,724,WeatherCatV1.21B27,2013-10-06 18:05:00,
2013-10-06 13:07:00,55.7,39.3,29.98,WSW,257,5.0,23.0,54,0.00,,,0.02,726,WeatherCatV1.21B27,2013-10-06 18:07:00,
2013-10-06 13:09:00,55.8,38.9,29.98,West,281,8.0,14.0,53,0.00,,,0.02,726,WeatherCatV1.21B27,2013-10-06 18:09:00,
2013-10-06 13:10:00,55.8,39.4,29.98,NNW,344,15.0,16.0,54,0.00,,,0.02,726,WeatherCatV1.21B27,2013-10-06 18:10:00,
2013-10-06 13:11:00,55.8,39.4,29.98,WNW,302,10.0,16.0,54,0.00,,,0.02,728,WeatherCatV1.21B27,2013-10-06 18:11:00,
2013-10-06 13:12:00,55.9,39.0,29.98,NNW,327,5.0,21.0,53,0.00,,,0.02,729,WeatherCatV1.21B27,2013-10-06 18:12:00,
2013-10-06 13:14:00,55.9,39.0,29.98,West,265,6.0,16.0,53,0.00,,,0.02,729,WeatherCatV1.21B27,2013-10-06 18:14:00,
2013-10-06 13:15:00,56.0,38.6,29.98,West,260,12.0,23.0,52,0.00,,,0.02,731,WeatherCatV1.21B27,2013-10-06 18:15:00,
2013-10-06 13:16:00,56.0,38.6,29.98,WNW,285,3.0,23.0,52,0.00,,,0.02,731,WeatherCatV1.21B27,2013-10-06 18:16:00,
2013-10-06 13:18:00,56.1,39.2,29.98,North,0,15.0,15.0,53,0.00,,,0.02,731,WeatherCatV1.21B27,2013-10-06 18:18:00,
2013-10-06 13:19:00,56.3,39.4,29.98,NNW,337,13.0,15.0,53,0.00,,,0.02,729,WeatherCatV1.21B27,2013-10-06 18:19:00,
2013-10-06 13:20:00,56.3,38.9,29.98,North,0,8.0,16.0,52,0.00,,,0.02,729,WeatherCatV1.21B27,2013-10-06 18:20:00,
2013-10-06 13:21:00,56.3,38.9,29.97,NNW,338,7.0,16.0,52,0.00,,,0.02,731,WeatherCatV1.21B27,2013-10-06 18:21:00,
2013-10-06 13:23:00,56.5,39.1,29.98,NW,314,6.0,13.0,52,0.00,,,0.02,733,WeatherCatV1.21B27,2013-10-06 18:23:00,
2013-10-06 13:24:00,56.6,39.7,29.98,WNW,288,16.0,16.0,53,0.00,,,0.02,731,WeatherCatV1.21B27,2013-10-06 18:24:00,
2013-10-06 13:25:00,56.6,39.7,29.98,North,349,11.0,18.0,53,0.00,,,0.02,733,WeatherCatV1.21B27,2013-10-06 18:25:00,
2013-10-06 13:26:00,56.6,37.7,29.98,WNW,299,13.0,18.0,49,0.00,,,0.02,733,WeatherCatV1.21B27,2013-10-06 18:26:00,
2013-10-06 13:28:00,56.5,36.5,29.98,NNW,337,16.0,20.0,47,0.00,,,0.02,733,WeatherCatV1.21B27,2013-10-06 18:28:00,
2013-10-06 13:29:00,56.4,35.9,29.98,NNW,336,7.0,20.0,46,0.00,,,0.02,735,WeatherCatV1.21B27,2013-10-06 18:29:00,
2013-10-06 13:30:00,56.4,36.4,29.98,NNW,334,8.0,15.0,47,0.00,,,0.02,735,WeatherCatV1.21B27,2013-10-06 18:30:00,
2013-10-06 13:31:00,56.5,37.0,29.98,NNW,345,10.0,15.0,48,0.00,,,0.02,737,WeatherCatV1.21B27,2013-10-06 18:31:00,
2013-10-06 13:32:00,56.6,36.1,29.98,North,350,18.0,18.0,46,0.00,,,0.02,737,WeatherCatV1.21B27,2013-10-06 18:32:00,
2013-10-06 13:33:00,56.8,35.7,29.98,NNE,13,7.0,18.0,45,0.00,,,0.02,737,WeatherCatV1.21B27,2013-10-06 18:33:00,
2013-10-06 13:34:00,56.9,35.8,29.98,WNW,284,17.0,21.0,45,0.00,,,0.02,737,WeatherCatV1.21B27,2013-10-06 18:34:00,
2013-10-06 13:35:00,56.9,35.2,29.98,NW,315,9.0,21.0,44,0.00,,,0.02,737,WeatherCatV1.21B27,2013-10-06 18:35:00,
2013-10-06 13:36:00,56.8,35.1,29.98,NW,305,7.0,21.0,44,0.00,,,0.02,737,WeatherCatV1.21B27,2013-10-06 18:36:00,
2013-10-06 13:37:00,57.0,35.9,29.98,North,350,7.0,12.0,45,0.00,,,0.02,737,WeatherCatV1.21B27,2013-10-06 18:37:00,
2013-10-06 13:39:00,57.1,35.4,29.98,NW,323,19.0,26.0,44,0.00,,,0.02,737,WeatherCatV1.21B27,2013-10-06 18:39:00,
2013-10-06 13:40:00,57.1,34.2,29.98,NW,305,7.0,26.0,42,0.00,,,0.02,738,WeatherCatV1.21B27,2013-10-06 18:40:00,
2013-10-06 13:41:00,57.0,34.1,29.98,NW,312,13.0,20.0,42,0.00,,,0.02,737,WeatherCatV1.21B27,2013-10-06 18:41:00,
2013-10-06 13:42:00,56.9,34.0,29.98,NW,313,8.0,21.0,42,0.00,,,0.02,737,WeatherCatV1.21B27,2013-10-06 18:42:00,
2013-10-06 13:44:00,56.9,34.0,29.97,NNE,22,7.0,16.0,42,0.00,,,0.02,738,WeatherCatV1.21B27,2013-10-06 18:44:00,
2013-10-06 13:45:00,56.9,34.0,29.98,North,0,11.0,14.0,42,0.00,,,0.02,737,WeatherCatV1.21B27,2013-10-06 18:45:00,
2013-10-06 13:46:00,57.0,34.1,29.97,North,355,14.0,21.0,42,0.00,,,0.02,737,WeatherCatV1.21B27,2013-10-06 18:46:00,
2013-10-06 13:47:00,57.1,34.2,29.97,WNW,288,13.0,21.0,42,0.00,,,0.02,738,WeatherCatV1.21B27,2013-10-06 18:47:00,
2013-10-06 13:48:00,57.1,34.2,29.97,NNW,327,6.0,21.0,42,0.00,,,0.02,738,WeatherCatV1.21B27,2013-10-06 18:48:00,
2013-10-06 13:49:00,57.4,34.5,29.98,WNW,286,1.0,14.0,42,0.00,,,0.02,737,WeatherCatV1.21B27,2013-10-06 18:49:00,
2013-10-06 13:50:00,57.5,34.6,29.98,SSW,202,2.0,12.0,42,0.00,,,0.02,737,WeatherCatV1.21B27,2013-10-06 18:50:00,
2013-10-06 13:51:00,57.7,34.8,29.98,NW,326,4.0,9.0,42,0.00,,,0.02,738,WeatherCatV1.21B27,2013-10-06 18:51:00,
2013-10-06 13:53:00,58.0,34.4,29.98,NW,325,14.0,14.0,41,0.00,,,0.02,738,WeatherCatV1.21B27,2013-10-06 18:53:00,
2013-10-06 13:55:00,58.0,31.2,29.98,NNE,22,4.0,21.0,36,0.00,,,0.02,737,WeatherCatV1.21B27,2013-10-06 18:55:00,
2013-10-06 13:56:00,58.0,32.5,29.98,WSW,240,8.0,13.0,38,0.00,,,0.02,737,WeatherCatV1.21B27,2013-10-06 18:56:00,
2013-10-06 13:58:00,58.2,32.0,29.98,NW,325,7.0,20.0,37,0.00,,,0.02,735,WeatherCatV1.21B27,2013-10-06 18:58:00,
2013-10-06 14:00:00,58.3,31.5,29.98,NNW,327,15.0,20.0,36,0.00,,,0.02,731,WeatherCatV1.21B27,2013-10-06 19:00:00,
2013-10-06 14:02:00,58.2,32.0,29.98,West,275,9.0,17.0,37,0.00,,,0.02,731,WeatherCatV1.21B27,2013-10-06 19:02:00,
2013-10-06 14:03:00,58.3,32.1,29.97,WSW,254,3.0,13.0,37,0.00,,,0.02,729,WeatherCatV1.21B27,2013-10-06 19:03:00,
2013-10-06 14:05:00,58.4,31.5,29.97,NNW,336,9.0,18.0,36,0.00,,,0.02,731,WeatherCatV1.21B27,2013-10-06 19:05:00,
2013-10-06 14:07:00,58.5,31.6,29.98,NNE,15,12.0,12.0,36,0.00,,,0.02,729,WeatherCatV1.21B27,2013-10-06 19:07:00,
2013-10-06 14:08:00,58.6,31.0,29.98,NNW,336,9.0,16.0,35,0.00,,,0.02,728,WeatherCatV1.21B27,2013-10-06 19:08:00,
2013-10-06 14:10:00,58.8,30.5,29.98,West,277,12.0,17.0,34,0.00,,,0.02,729,WeatherCatV1.21B27,2013-10-06 19:10:00,
2013-10-06 14:12:00,58.8,29.8,29.98,NW,324,12.0,18.0,33,0.00,,,0.02,728,WeatherCatV1.21B27,2013-10-06 19:12:00,
2013-10-06 14:13:00,58.9,29.9,29.98,WNW,287,5.0,15.0,33,0.00,,,0.02,724,WeatherCatV1.21B27,2013-10-06 19:13:00,
2013-10-06 14:14:00,58.9,30.6,29.98,NW,322,11.0,12.0,34,0.00,,,0.02,724,WeatherCatV1.21B27,2013-10-06 19:14:00,
2013-10-06 14:15:00,59.0,30.7,29.98,NNW,328,10.0,12.0,34,0.00,,,0.02,724,WeatherCatV1.21B27,2013-10-06 19:15:00,
2013-10-06 14:16:00,58.9,29.9,29.98,NW,321,6.0,14.0,33,0.00,,,0.02,724,WeatherCatV1.21B27,2013-10-06 19:16:00,
2013-10-06 14:17:00,59.0,30.7,29.98,NW,310,11.0,17.0,34,0.00,,,0.02,721,WeatherCatV1.21B27,2013-10-06 19:17:00,
2013-10-06 14:18:00,59.0,29.2,29.98,WNW,295,9.0,17.0,32,0.00,,,0.02,721,WeatherCatV1.21B27,2013-10-06 19:18:00,
2013-10-06 14:19:00,59.0,29.2,29.98,WNW,297,12.0,15.0,32,0.00,,,0.02,721,WeatherCatV1.21B27,2013-10-06 19:19:00,
2013-10-06 14:21:00,59.0,30.7,29.97,West,272,4.0,12.0,34,0.00,,,0.02,717,WeatherCatV1.21B27,2013-10-06 19:21:00,
2013-10-06 14:22:00,59.0,29.2,29.98,North,355,13.0,16.0,32,0.00,,,0.02,717,WeatherCatV1.21B27,2013-10-06 19:22:00,
2013-10-06 14:23:00,59.0,28.4,29.97,NW,309,13.0,18.0,31,0.00,,,0.02,717,WeatherCatV1.21B27,2013-10-06 19:23:00,
2013-10-06 14:25:00,59.0,29.2,29.98,NW,304,9.0,17.0,32,0.00,,,0.02,715,WeatherCatV1.21B27,2013-10-06 19:25:00,
2013-10-06 14:26:00,59.1,28.5,29.97,NW,309,11.0,17.0,31,0.00,,,0.02,714,WeatherCatV1.21B27,2013-10-06 19:26:00,
2013-10-06 14:28:00,59.2,29.4,29.97,NW,313,19.0,19.0,32,0.00,,,0.02,712,WeatherCatV1.21B27,2013-10-06 19:28:00,
2013-10-06 14:29:00,59.2,29.4,29.97,NW,310,5.0,19.0,32,0.00,,,0.02,710,WeatherCatV1.21B27,2013-10-06 19:29:00,
2013-10-06 14:30:00,59.3,29.5,29.97,NNW,338,5.0,19.0,32,0.00,,,0.02,710,WeatherCatV1.21B27,2013-10-06 19:30:00,
2013-10-06 14:31:00,59.5,30.4,29.98,NW,325,6.0,14.0,33,0.00,,,0.02,705,WeatherCatV1.21B27,2013-10-06 19:31:00,
2013-10-06 14:33:00,59.6,29.7,29.97,NW,324,9.0,14.0,32,0.00,,,0.02,707,WeatherCatV1.21B27,2013-10-06 19:33:00,
2013-10-06 14:34:00,59.7,29.0,29.97,North,355,7.0,10.0,31,0.00,,,0.02,703,WeatherCatV1.21B27,2013-10-06 19:34:00,
2013-10-06 14:35:00,59.7,29.0,29.97,NNW,343,5.0,10.0,31,0.00,,,0.02,703,WeatherCatV1.21B27,2013-10-06 19:35:00,
2013-10-06 14:36:00,59.8,28.3,29.98,NW,306,8.0,20.0,30,0.00,,,0.02,703,WeatherCatV1.21B27,2013-10-06 19:36:00,
2013-10-06 14:37:00,59.8,28.3,29.98,North,0,5.0,20.0,30,0.00,,,0.02,701,WeatherCatV1.21B27,2013-10-06 19:37:00,
2013-10-06 14:38:00,59.6,28.1,29.98,NW,315,6.0,14.0,30,0.00,,,0.02,703,WeatherCatV1.21B27,2013-10-06 19:38:00,
2013-10-06 14:40:00,59.5,28.9,29.97,NNW,340,10.0,23.0,31,0.00,,,0.02,698,WeatherCatV1.21B27,2013-10-06 19:40:00,
2013-10-06 14:41:00,59.4,28.8,29.98,WNW,283,5.0,22.0,31,0.00,,,0.02,696,WeatherCatV1.21B27,2013-10-06 19:41:00,
2013-10-06 14:42:00,59.4,29.5,29.97,WNW,292,2.0,12.0,32,0.00,,,0.02,696,WeatherCatV1.21B27,2013-10-06 19:42:00,
2013-10-06 14:43:00,59.5,29.6,29.97,WNW,284,2.0,12.0,32,0.00,,,0.02,696,WeatherCatV1.21B27,2013-10-06 19:43:00,
2013-10-06 14:45:00,59.8,29.1,29.97,West,270,3.0,15.0,31,0.00,,,0.02,691,WeatherCatV1.21B27,2013-10-06 19:45:00,
2013-10-06 14:46:00,59.8,29.1,29.97,WNW,286,17.0,17.0,31,0.00,,,0.02,691,WeatherCatV1.21B27,2013-10-06 19:46:00,
2013-10-06 14:47:00,59.9,29.2,29.97,West,276,4.0,21.0,31,0.00,,,0.02,691,WeatherCatV1.21B27,2013-10-06 19:47:00,
2013-10-06 14:48:00,59.8,29.1,29.97,NW,322,7.0,21.0,31,0.00,,,0.02,687,WeatherCatV1.21B27,2013-10-06 19:48:00,
2013-10-06 14:50:00,59.9,30.0,29.97,NW,313,2.0,17.0,32,0.00,,,0.02,684,WeatherCatV1.21B27,2013-10-06 19:50:00,
2013-10-06 14:51:00,60.0,30.1,29.97,NNW,338,17.0,17.0,32,0.00,,,0.02,682,WeatherCatV1.21B27,2013-10-06 19:51:00,
2013-10-06 14:52:00,60.0,30.1,29.97,NNE,15,9.0,17.0,32,0.00,,,0.02,682,WeatherCatV1.21B27,2013-10-06 19:52:00,
2013-10-06 14:53:00,60.1,30.1,29.97,North,5,9.0,17.0,32,0.00,,,0.02,679,WeatherCatV1.21B27,2013-10-06 19:53:00,
2013-10-06 14:56:00,60.2,30.2,29.97,WNW,291,6.0,16.0,32,0.00,,,0.02,677,WeatherCatV1.21B27,2013-10-06 19:56:00,
2013-10-06 14:57:00,60.3,30.3,29.97,West,266,8.0,14.0,32,0.00,,,0.02,675,WeatherCatV1.21B27,2013-10-06 19:57:00,
2013-10-06 14:58:00,60.4,31.2,29.97,NW,307,9.0,17.0,33,0.00,,,0.02,675,WeatherCatV1.21B27,2013-10-06 19:58:00,
2013-10-06 15:01:00,60.7,31.4,29.97,NW,321,10.0,10.0,33,0.00,,,0.02,671,WeatherCatV1.21B27,2013-10-06 20:01:00,
2013-10-06 15:02:00,60.8,30.8,29.97,NW,313,6.0,12.0,32,0.00,,,0.02,670,WeatherCatV1.21B27,2013-10-06 20:02:00,
2013-10-06 15:03:00,60.8,30.0,29.97,WNW,288,7.0,21.0,31,0.00,,,0.02,668,WeatherCatV1.21B27,2013-10-06 20:03:00,
2013-10-06 15:06:00,60.7,29.9,29.97,WNW,286,7.0,18.0,31,0.00,,,0.02,661,WeatherCatV1.21B27,2013-10-06 20:06:00,
2013-10-06 15:07:00,60.7,29.9,29.97,WNW,302,9.0,18.0,31,0.00,,,0.02,659,WeatherCatV1.21B27,2013-10-06 20:07:00,
2013-10-06 15:08:00,60.7,30.7,29.97,NNE,14,5.0,9.0,32,0.00,,,0.02,657,WeatherCatV1.21B27,2013-10-06 20:08:00,
2013-10-06 15:09:00,60.8,30.0,29.97,NNW,333,17.0,24.0,31,0.00,,,0.02,657,WeatherCatV1.21B27,2013-10-06 20:09:00,
2013-10-06 15:11:00,60.8,30.0,29.97,NNW,346,18.0,18.0,31,0.00,,,0.02,654,WeatherCatV1.21B27,2013-10-06 20:11:00,
2013-10-06 15:12:00,60.8,29.2,29.97,NNW,335,12.0,18.0,30,0.00,,,0.02,654,WeatherCatV1.21B27,2013-10-06 20:12:00,
2013-10-06 15:13:00,60.8,29.2,29.97,NNW,330,7.0,18.0,30,0.00,,,0.02,649,WeatherCatV1.21B27,2013-10-06 20:13:00,
2013-10-06 15:14:00,60.7,29.1,29.97,NNW,329,11.0,16.0,30,0.00,,,0.02,647,WeatherCatV1.21B27,2013-10-06 20:14:00,
2013-10-06 15:16:00,60.8,29.2,29.97,NW,317,10.0,18.0,30,0.00,,,0.02,642,WeatherCatV1.21B27,2013-10-06 20:16:00,
2013-10-06 15:17:00,60.8,28.4,29.97,NNW,334,11.0,20.0,29,0.00,,,0.02,642,WeatherCatV1.21B27,2013-10-06 20:17:00,
2013-10-06 15:18:00,60.8,28.4,29.97,West,281,7.0,21.0,29,0.00,,,0.02,640,WeatherCatV1.21B27,2013-10-06 20:18:00,
2013-10-06 15:19:00,60.9,29.3,29.97,WNW,288,3.0,21.0,30,0.00,,,0.02,638,WeatherCatV1.21B27,2013-10-06 20:19:00,
2013-10-06 15:21:00,61.1,29.4,29.97,NW,311,5.0,22.0,30,0.00,,,0.02,635,WeatherCatV1.21B27,2013-10-06 20:21:00,
2013-10-06 15:23:00,61.3,28.8,29.97,WNW,294,11.0,15.0,29,0.00,,,0.02,629,WeatherCatV1.21B27,2013-10-06 20:23:00,
2013-10-06 15:24:00,61.4,29.7,29.97,NW,306,3.0,15.0,30,0.00,,,0.02,629,WeatherCatV1.21B27,2013-10-06 20:24:00,
2013-10-06 15:27:00,61.6,29.9,29.97,NNW,336,5.0,14.0,30,0.00,,,0.02,621,WeatherCatV1.21B27,2013-10-06 20:27:00,
2013-10-06 15:28:00,61.7,30.0,29.97,NNW,348,14.0,15.0,30,0.00,,,0.02,617,WeatherCatV1.21B27,2013-10-06 20:28:00,
2013-10-06 15:29:00,61.7,30.0,29.97,WNW,302,4.0,16.0,30,0.00,,,0.02,615,WeatherCatV1.21B27,2013-10-06 20:29:00,
2013-10-06 15:30:00,61.8,29.2,29.97,NW,309,7.0,21.0,29,0.00,,,0.02,615,WeatherCatV1.21B27,2013-10-06 20:30:00,
2013-10-06 15:32:00,61.7,30.0,29.97,NW,309,17.0,19.0,30,0.00,,,0.02,610,WeatherCatV1.21B27,2013-10-06 20:32:00,
2013-10-06 15:33:00,61.7,29.1,29.97,NNW,327,7.0,19.0,29,0.00,,,0.02,606,WeatherCatV1.21B27,2013-10-06 20:33:00,
2013-10-06 15:34:00,61.7,29.1,29.97,NW,325,14.0,14.0,29,0.00,,,0.02,605,WeatherCatV1.21B27,2013-10-06 20:34:00,
2013-10-06 15:35:00,61.7,29.1,29.97,NNW,344,17.0,17.0,29,0.00,,,0.02,605,WeatherCatV1.21B27,2013-10-06 20:35:00,
2013-10-06 15:37:00,61.7,28.3,29.97,NNW,327,3.0,21.0,28,0.00,,,0.02,598,WeatherCatV1.21B27,2013-10-06 20:37:00,
2013-10-06 15:38:00,61.8,29.2,29.97,North,9,10.0,21.0,29,0.00,,,0.02,596,WeatherCatV1.21B27,2013-10-06 20:38:00,
2013-10-06 15:39:00,61.8,29.2,29.96,North,355,7.0,15.0,29,0.00,,,0.02,592,WeatherCatV1.21B27,2013-10-06 20:39:00,
2013-10-06 15:40:00,61.8,29.2,29.96,NW,318,9.0,20.0,29,0.00,,,0.02,592,WeatherCatV1.21B27,2013-10-06 20:40:00,
2013-10-06 15:42:00,61.8,29.2,29.96,NNW,330,7.0,15.0,29,0.00,,,0.02,587,WeatherCatV1.21B27,2013-10-06 20:42:00,
2013-10-06 15:43:00,61.9,29.3,29.97,NNE,21,3.0,14.0,29,0.00,,,0.02,585,WeatherCatV1.21B27,2013-10-06 20:43:00,
2013-10-06 15:44:00,62.0,30.2,29.97,WSW,250,9.0,15.0,30,0.00,,,0.02,584,WeatherCatV1.21B27,2013-10-06 20:44:00,
2013-10-06 15:45:00,62.1,29.5,29.97,North,9,17.0,17.0,29,0.00,,,0.02,580,WeatherCatV1.21B27,2013-10-06 20:45:00,
2013-10-06 15:48:00,62.3,27.9,29.97,WNW,299,6.0,17.0,27,0.00,,,0.02,575,WeatherCatV1.21B27,2013-10-06 20:48:00,
2013-10-06 15:49:00,62.3,28.8,29.97,NNW,334,10.0,17.0,28,0.00,,,0.02,573,WeatherCatV1.21B27,2013-10-06 20:49:00,
2013-10-06 15:50:00,62.3,27.9,29.97,NW,321,9.0,20.0,27,0.00,,,0.02,571,WeatherCatV1.21B27,2013-10-06 20:50:00,
2013-10-06 15:53:00,62.2,27.8,29.97,NW,322,17.0,28.0,27,0.00,,,0.02,563,WeatherCatV1.21B27,2013-10-06 20:53:00,
2013-10-06 15:54:00,62.1,27.7,29.97,NW,319,6.0,18.0,27,0.00,,,0.02,561,WeatherCatV1.21B27,2013-10-06 20:54:00,
2013-10-06 15:55:00,62.1,28.6,29.97,NW,319,4.0,16.0,28,0.00,,,0.02,555,WeatherCatV1.21B27,2013-10-06 20:55:00,
2013-10-06 15:56:00,62.2,28.7,29.96,NW,324,14.0,17.0,28,0.00,,,0.02,555,WeatherCatV1.21B27,2013-10-06 20:56:00,
2013-10-06 15:58:00,62.3,27.9,29.97,North,0,6.0,17.0,27,0.00,,,0.02,548,WeatherCatV1.21B27,2013-10-06 20:58:00,
2013-10-06 15:59:00,62.3,27.9,29.97,NNE,13,14.0,17.0,27,0.00,,,0.02,548,WeatherCatV1.21B27,2013-10-06 20:59:00,
2013-10-06 16:00:00,62.4,28.9,29.97,NNW,337,10.0,17.0,28,0.00,,,0.02,547,WeatherCatV1.21B27,2013-10-06 21:00:00,
2013-10-06 16:01:00,62.5,29.0,29.97,NW,326,12.0,12.0,28,0.00,,,0.02,541,WeatherCatV1.21B27,2013-10-06 21:01:00,
2013-10-06 16:03:00,62.6,29.0,29.97,North,0,3.0,15.0,28,0.00,,,0.02,536,WeatherCatV1.21B27,2013-10-06 21:03:00,
2013-10-06 16:04:00,62.6,29.0,29.97,NNW,337,14.0,14.0,28,0.00,,,0.02,534,WeatherCatV1.21B27,2013-10-06 21:04:00,
2013-10-06 16:05:00,62.6,29.0,29.97,NW,323,10.0,14.0,28,0.00,,,0.02,533,WeatherCatV1.21B27,2013-10-06 21:05:00,
2013-10-06 16:06:00,62.6,29.0,29.97,NNW,342,2.0,14.0,28,0.00,,,0.02,531,WeatherCatV1.21B27,2013-10-06 21:06:00,
2013-10-06 16:08:00,62.8,30.1,29.97,NW,325,15.0,15.0,29,0.00,,,0.02,524,WeatherCatV1.21B27,2013-10-06 21:08:00,
2013-10-06 16:09:00,62.9,29.3,29.97,WNW,298,16.0,18.0,28,0.00,,,0.02,522,WeatherCatV1.21B27,2013-10-06 21:09:00,
2013-10-06 16:10:00,62.9,29.3,29.97,NW,304,4.0,18.0,28,0.00,,,0.02,520,WeatherCatV1.21B27,2013-10-06 21:10:00,
2013-10-06 16:11:00,62.9,29.3,29.97,North,9,6.0,18.0,28,0.00,,,0.02,517,WeatherCatV1.21B27,2013-10-06 21:11:00,
2013-10-06 16:14:00,63.0,30.2,29.97,WNW,284,7.0,17.0,29,0.00,,,0.02,508,WeatherCatV1.21B27,2013-10-06 21:14:00,
2013-10-06 16:15:00,63.1,30.3,29.97,West,275,3.0,10.0,29,0.00,,,0.02,504,WeatherCatV1.21B27,2013-10-06 21:15:00,
2013-10-06 16:16:00,63.2,29.6,29.97,West,279,2.0,10.0,28,0.00,,,0.02,504,WeatherCatV1.21B27,2013-10-06 21:16:00,
2013-10-06 16:17:00,63.2,29.6,29.97,NNW,348,3.0,11.0,28,0.00,,,0.02,501,WeatherCatV1.21B27,2013-10-06 21:17:00,
2013-10-06 16:19:00,63.3,30.5,29.97,NW,305,11.0,17.0,29,0.00,,,0.02,492,WeatherCatV1.21B27,2013-10-06 21:19:00,
2013-10-06 16:20:00,63.3,29.6,29.97,NW,316,8.0,17.0,28,0.00,,,0.02,490,WeatherCatV1.21B27,2013-10-06 21:20:00,
2013-10-06 16:21:00,63.3,29.6,29.97,West,278,12.0,14.0,28,0.00,,,0.02,487,WeatherCatV1.21B27,2013-10-06 21:21:00,
2013-10-06 16:22:00,63.3,30.5,29.97,NW,315,9.0,14.0,29,0.00,,,0.02,485,WeatherCatV1.21B27,2013-10-06 21:22:00,
2013-10-06 16:24:00,63.3,30.5,29.97,NNW,333,1.0,6.0,29,0.00,,,0.02,480,WeatherCatV1.21B27,2013-10-06 21:24:00,
2013-10-06 16:26:00,63.4,30.6,29.97,NNW,334,5.0,14.0,29,0.00,,,0.02,476,WeatherCatV1.21B27,2013-10-06 21:26:00,
2013-10-06 16:27:00,63.5,30.7,29.97,North,0,12.0,14.0,29,0.00,,,0.02,473,WeatherCatV1.21B27,2013-10-06 21:27:00,
2013-10-06 16:29:00,63.6,31.6,29.97,NW,319,3.0,14.0,30,0.00,,,0.02,466,WeatherCatV1.21B27,2013-10-06 21:29:00,
2013-10-06 16:30:00,63.6,31.6,29.97,NNW,329,12.0,14.0,30,0.00,,,0.02,466,WeatherCatV1.21B27,2013-10-06 21:30:00,
2013-10-06 16:31:00,63.6,29.9,29.97,North,5,7.0,14.0,28,0.00,,,0.02,461,WeatherCatV1.21B27,2013-10-06 21:31:00,
2013-10-06 16:32:00,63.6,29.9,29.97,WNW,302,5.0,13.0,28,0.00,,,0.02,455,WeatherCatV1.21B27,2013-10-06 21:32:00,
2013-10-06 16:35:00,63.6,29.9,29.97,NW,317,9.0,10.0,28,0.00,,,0.02,452,WeatherCatV1.21B27,2013-10-06 21:35:00,
2013-10-06 16:36:00,63.6,29.9,29.97,NW,325,1.0,12.0,28,0.00,,,0.02,445,WeatherCatV1.21B27,2013-10-06 21:36:00,
2013-10-06 16:37:00,63.7,30.9,29.97,NW,310,6.0,7.0,29,0.00,,,0.02,443,WeatherCatV1.21B27,2013-10-06 21:37:00,
2013-10-06 16:38:00,63.8,30.9,29.97,NW,318,8.0,8.0,29,0.00,,,0.02,439,WeatherCatV1.21B27,2013-10-06 21:38:00,
2013-10-06 16:40:00,63.9,30.2,29.97,NNE,25,5.0,16.0,28,0.00,,,0.02,434,WeatherCatV1.21B27,2013-10-06 21:40:00,
2013-10-06 16:41:00,63.8,30.1,29.97,NNW,340,10.0,15.0,28,0.00,,,0.02,432,WeatherCatV1.21B27,2013-10-06 21:41:00,
2013-10-06 16:42:00,63.6,29.9,29.97,NNW,339,7.0,15.0,28,0.00,,,0.02,427,WeatherCatV1.21B27,2013-10-06 21:42:00,
2013-10-06 16:43:00,63.6,29.9,29.98,NNW,336,10.0,15.0,28,0.00,,,0.02,427,WeatherCatV1.21B27,2013-10-06 21:43:00,
2013-10-06 16:45:00,63.5,30.7,29.97,NE,56,6.0,10.0,29,0.00,,,0.02,420,WeatherCatV1.21B27,2013-10-06 21:45:00,
2013-10-06 16:46:00,63.5,30.7,29.97,NW,307,6.0,11.0,29,0.00,,,0.02,418,WeatherCatV1.21B27,2013-10-06 21:46:00,
2013-10-06 16:48:00,63.6,30.8,29.97,NNW,341,4.0,11.0,29,0.00,,,0.02,411,WeatherCatV1.21B27,2013-10-06 21:48:00,
2013-10-06 16:50:00,63.6,30.8,29.97,NW,317,2.0,14.0,29,0.00,,,0.02,406,WeatherCatV1.21B27,2013-10-06 21:50:00,
2013-10-06 16:51:00,63.7,30.9,29.97,NW,309,7.0,14.0,29,0.00,,,0.02,399,WeatherCatV1.21B27,2013-10-06 21:51:00,
2013-10-06 16:53:00,63.7,30.0,29.97,NW,319,9.0,13.0,28,0.00,,,0.02,394,WeatherCatV1.21B27,2013-10-06 21:53:00,
2013-10-06 16:55:00,63.7,30.9,29.97,NW,307,6.0,9.0,29,0.00,,,0.02,390,WeatherCatV1.21B27,2013-10-06 21:55:00,
2013-10-06 16:56:00,63.8,31.8,29.97,NW,311,5.0,7.0,30,0.00,,,0.02,388,WeatherCatV1.21B27,2013-10-06 21:56:00,
2013-10-06 16:57:00,63.8,31.8,29.97,NW,305,5.0,16.0,30,0.00,,,0.02,381,WeatherCatV1.21B27,2013-10-06 21:57:00,
2013-10-06 16:58:00,63.8,30.9,29.97,North,0,3.0,16.0,29,0.00,,,0.02,381,WeatherCatV1.21B27,2013-10-06 21:58:00,
2013-10-06 17:00:00,63.8,30.9,29.97,NW,310,4.0,11.0,29,0.00,,,0.02,371,WeatherCatV1.21B27,2013-10-06 22:00:00,
2013-10-06 17:01:00,63.8,30.9,29.97,North,0,10.0,10.0,29,0.00,,,0.02,369,WeatherCatV1.21B27,2013-10-06 22:01:00,
2013-10-06 17:02:00,63.8,30.9,29.97,North,0,3.0,10.0,29,0.00,,,0.02,369,WeatherCatV1.21B27,2013-10-06 22:02:00,
2013-10-06 17:03:00,63.8,30.9,29.97,NNW,329,3.0,11.0,29,0.00,,,0.02,362,WeatherCatV1.21B27,2013-10-06 22:03:00,
2013-10-06 17:04:00,63.8,30.9,29.97,NNW,329,3.0,11.0,29,0.00,,,0.02,362,WeatherCatV1.21B27,2013-10-06 22:04:00,
2013-10-06 17:05:00,63.8,30.9,29.97,NW,325,7.0,18.0,29,0.00,,,0.02,355,WeatherCatV1.21B27,2013-10-06 22:05:00,
2013-10-06 17:06:00,63.8,30.9,29.97,NW,324,5.0,9.0,29,0.00,,,0.02,353,WeatherCatV1.21B27,2013-10-06 22:06:00,
2013-10-06 17:07:00,63.8,30.9,29.98,NW,323,2.0,9.0,29,0.00,,,0.02,350,WeatherCatV1.21B27,2013-10-06 22:07:00,
2013-10-06 17:08:00,63.8,31.8,29.98,NW,323,7.0,7.0,30,0.00,,,0.02,348,WeatherCatV1.21B27,2013-10-06 22:08:00,
2013-10-06 17:09:00,63.8,31.8,29.97,West,269,10.0,10.0,30,0.00,,,0.02,345,WeatherCatV1.21B27,2013-10-06 22:09:00,
2013-10-06 17:10:00,63.9,31.0,29.97,NW,307,10.0,18.0,29,0.00,,,0.02,339,WeatherCatV1.21B27,2013-10-06 22:10:00,
2013-10-06 17:12:00,63.9,31.0,29.97,NW,319,1.0,10.0,29,0.00,,,0.02,336,WeatherCatV1.21B27,2013-10-06 22:12:00,
2013-10-06 17:13:00,63.9,31.0,29.97,NNW,330,5.0,11.0,29,0.00,,,0.02,334,WeatherCatV1.21B27,2013-10-06 22:13:00,
2013-10-06 17:14:00,63.9,31.0,29.97,NW,309,5.0,11.0,29,0.00,,,0.02,330,WeatherCatV1.21B27,2013-10-06 22:14:00,
2013-10-06 17:16:00,63.9,31.0,29.97,NW,309,3.0,18.0,29,0.00,,,0.02,325,WeatherCatV1.21B27,2013-10-06 22:16:00,
2013-10-06 17:17:00,63.9,31.0,29.97,NW,309,4.0,15.0,29,0.00,,,0.02,318,WeatherCatV1.21B27,2013-10-06 22:17:00,
2013-10-06 17:18:00,63.9,31.0,29.98,NNW,339,12.0,15.0,29,0.00,,,0.02,318,WeatherCatV1.21B27,2013-10-06 22:18:00,
2013-10-06 17:19:00,63.8,30.1,29.98,NW,322,4.0,17.0,28,0.00,,,0.02,315,WeatherCatV1.21B27,2013-10-06 22:19:00,
2013-10-06 17:20:00,63.8,30.9,29.98,NW,323,10.0,17.0,29,0.00,,,0.02,309,WeatherCatV1.21B27,2013-10-06 22:20:00,
2013-10-06 17:21:00,63.8,31.8,29.98,NNE,19,11.0,11.0,30,0.00,,,0.02,309,WeatherCatV1.21B27,2013-10-06 22:21:00,
2013-10-06 17:22:00,63.8,30.1,29.98,NE,45,11.0,18.0,28,0.00,,,0.02,301,WeatherCatV1.21B27,2013-10-06 22:22:00,
2013-10-06 17:23:00,63.9,30.2,29.98,NNW,339,7.0,18.0,28,0.00,,,0.02,301,WeatherCatV1.21B27,2013-10-06 22:23:00,
2013-10-06 17:24:00,63.8,30.9,29.98,NW,313,7.0,11.0,29,0.00,,,0.02,297,WeatherCatV1.21B27,2013-10-06 22:24:00,
2013-10-06 17:25:00,63.8,30.1,29.98,NNW,329,13.0,18.0,28,0.00,,,0.02,295,WeatherCatV1.21B27,2013-10-06 22:25:00,
2013-10-06 17:26:00,63.8,30.9,29.98,North,0,9.0,13.0,29,0.00,,,0.02,292,WeatherCatV1.21B27,2013-10-06 22:26:00,
2013-10-06 17:28:00,63.7,30.0,29.98,NW,323,12.0,19.0,28,0.00,,,0.02,285,WeatherCatV1.21B27,2013-10-06 22:28:00,
2013-10-06 17:29:00,63.7,30.0,29.98,NW,312,6.0,19.0,28,0.00,,,0.02,281,WeatherCatV1.21B27,2013-10-06 22:29:00,
2013-10-06 17:31:00,63.7,31.7,29.98,West,280,6.0,6.0,30,0.00,,,0.02,274,WeatherCatV1.21B27,2013-10-06 22:31:00,
2013-10-06 17:33:00,63.8,31.8,29.98,NW,318,5.0,6.0,30,0.00,,,0.02,267,WeatherCatV1.21B27,2013-10-06 22:33:00,
2013-10-06 17:34:00,63.8,31.8,29.98,NNW,333,5.0,10.0,30,0.00,,,0.02,264,WeatherCatV1.21B27,2013-10-06 22:34:00,
2013-10-06 17:36:00,63.8,30.9,29.99,North,0,11.0,14.0,29,0.00,,,0.02,251,WeatherCatV1.21B27,2013-10-06 22:36:00,
2013-10-06 17:38:00,63.8,30.9,29.99,NNW,330,6.0,15.0,29,0.00,,,0.02,244,WeatherCatV1.21B27,2013-10-06 22:38:00,
2013-10-06 17:39:00,63.8,30.9,29.98,WNW,298,11.0,15.0,29,0.00,,,0.02,241,WeatherCatV1.21B27,2013-10-06 22:39:00,
2013-10-06 17:40:00,63.8,30.9,29.99,NNW,342,7.0,11.0,29,0.00,,,0.02,236,WeatherCatV1.21B27,2013-10-06 22:40:00,
2013-10-06 17:41:00,63.7,30.9,29.99,NNW,330,5.0,10.0,29,0.00,,,0.02,229,WeatherCatV1.21B27,2013-10-06 22:41:00,
2013-10-06 17:43:00,63.8,32.6,29.99,NNW,333,5.0,10.0,31,0.00,,,0.02,225,WeatherCatV1.21B27,2013-10-06 22:43:00,
2013-10-06 17:45:00,63.7,30.9,29.99,NW,308,4.0,16.0,29,0.00,,,0.02,213,WeatherCatV1.21B27,2013-10-06 22:45:00,
2013-10-06 17:46:00,63.7,30.9,29.99,WNW,290,12.0,15.0,29,0.00,,,0.02,209,WeatherCatV1.21B27,2013-10-06 22:46:00,
2013-10-06 17:47:00,63.7,30.9,29.99,WNW,295,13.0,15.0,29,0.00,,,0.02,209,WeatherCatV1.21B27,2013-10-06 22:47:00,
2013-10-06 17:48:00,63.6,30.8,29.99,NW,323,8.0,16.0,29,0.00,,,0.02,202,WeatherCatV1.21B27,2013-10-06 22:48:00,
2013-10-06 17:49:00,63.6,30.8,29.99,NW,320,4.0,16.0,29,0.00,,,0.02,202,WeatherCatV1.21B27,2013-10-06 22:49:00,
2013-10-06 17:51:00,63.5,30.7,29.99,NNW,336,10.0,15.0,29,0.00,,,0.02,195,WeatherCatV1.21B27,2013-10-06 22:51:00,
2013-10-06 17:52:00,63.5,31.5,29.99,North,350,11.0,15.0,30,0.00,,,0.02,188,WeatherCatV1.21B27,2013-10-06 22:52:00,
2013-10-06 17:53:00,63.4,31.4,29.99,NW,323,2.0,13.0,30,0.00,,,0.02,185,WeatherCatV1.21B27,2013-10-06 22:53:00,
2013-10-06 17:54:00,63.4,31.4,29.99,North,351,6.0,13.0,30,0.00,,,0.02,179,WeatherCatV1.21B27,2013-10-06 22:54:00,
2013-10-06 17:56:00,63.4,31.4,29.99,NNW,329,6.0,7.0,30,0.00,,,0.02,172,WeatherCatV1.21B27,2013-10-06 22:56:00,
2013-10-06 17:58:00,63.3,30.5,30.00,West,280,6.0,18.0,29,0.00,,,0.02,162,WeatherCatV1.21B27,2013-10-06 22:58:00,
2013-10-06 17:59:00,63.3,31.3,30.00,West,268,11.0,15.0,30,0.00,,,0.02,156,WeatherCatV1.21B27,2013-10-06 22:59:00,
2013-10-06 18:01:00,63.2,31.2,30.00,North,355,4.0,16.0,30,0.00,,,0.02,149,WeatherCatV1.21B27,2013-10-06 23:01:00,
2013-10-06 18:04:00,63.2,31.2,30.00,NNW,330,3.0,18.0,30,0.00,,,0.02,142,WeatherCatV1.21B27,2013-10-06 23:04:00,
2013-10-06 18:06:00,63.1,31.2,30.00,NW,307,16.0,16.0,30,0.00,,,0.02,132,WeatherCatV1.21B27,2013-10-06 23:06:00,
2013-10-06 18:07:00,63.1,31.2,30.00,NNW,327,5.0,16.0,30,0.00,,,0.02,128,WeatherCatV1.21B27,2013-10-06 23:07:00,
2013-10-06 18:09:00,63.0,31.1,30.00,NNW,331,12.0,17.0,30,0.00,,,0.02,120,WeatherCatV1.21B27,2013-10-06 23:09:00,
2013-10-06 18:11:00,62.9,31.0,30.00,NW,315,4.0,13.0,30,0.00,,,0.02,111,WeatherCatV1.21B27,2013-10-06 23:11:00,
2013-10-06 18:12:00,62.9,31.8,30.00,NW,315,0.0,13.0,31,0.00,,,0.02,111,WeatherCatV1.21B27,2013-10-06 23:12:00,
2013-10-06 18:14:00,62.9,31.8,30.00,WNW,288,4.0,10.0,31,0.00,,,0.02,102,WeatherCatV1.21B27,2013-10-06 23:14:00,
2013-10-06 18:15:00,62.9,31.8,30.00,NNW,333,4.0,10.0,31,0.00,,,0.02,100,WeatherCatV1.21B27,2013-10-06 23:15:00,
2013-10-06 18:17:00,62.7,31.6,30.00,NNW,333,7.0,14.0,31,0.00,,,0.02,90,WeatherCatV1.21B27,2013-10-06 23:17:00,
2013-10-06 18:19:00,62.7,31.6,30.00,NW,325,9.0,11.0,31,0.00,,,0.02,83,WeatherCatV1.21B27,2013-10-06 23:19:00,
2013-10-06 18:20:00,62.7,31.6,30.00,NW,323,10.0,14.0,31,0.00,,,0.02,81,WeatherCatV1.21B27,2013-10-06 23:20:00,
2013-10-06 18:22:00,62.5,32.2,30.00,West,271,5.0,10.0,32,0.00,,,0.02,74,WeatherCatV1.21B27,2013-10-06 23:22:00,
2013-10-06 18:23:00,62.5,32.2,30.00,West,273,4.0,10.0,32,0.00,,,0.02,72,WeatherCatV1.21B27,2013-10-06 23:23:00,
2013-10-06 18:24:00,62.5,32.2,30.00,NNW,337,3.0,10.0,32,0.00,,,0.02,69,WeatherCatV1.21B27,2013-10-06 23:24:00,
2013-10-06 18:25:00,62.5,32.2,30.00,NNW,336,2.0,10.0,32,0.00,,,0.02,65,WeatherCatV1.21B27,2013-10-06 23:25:00,
2013-10-06 18:27:00,62.4,32.2,30.00,NNW,342,2.0,11.0,32,0.00,,,0.02,56,WeatherCatV1.21B27,2013-10-06 23:27:00,
2013-10-06 18:28:00,62.4,32.2,30.00,NNW,342,3.0,9.0,32,0.00,,,0.02,56,WeatherCatV1.21B27,2013-10-06 23:28:00,
2013-10-06 18:30:00,62.3,32.1,30.00,NNW,330,6.0,11.0,32,0.00,,,0.02,51,WeatherCatV1.21B27,2013-10-06 23:30:00,
2013-10-06 18:32:00,62.2,32.0,30.00,NW,318,5.0,9.0,32,0.00,,,0.02,37,WeatherCatV1.21B27,2013-10-06 23:32:00,
2013-10-06 18:33:00,62.2,32.0,30.00,NW,318,5.0,9.0,32,0.00,,,0.02,37,WeatherCatV1.21B27,2013-10-06 23:33:00,
2013-10-06 18:35:00,61.9,33.2,30.00,NW,319,4.0,6.0,34,0.00,,,0.02,19,WeatherCatV1.21B27,2013-10-06 23:35:00,
2013-10-06 18:36:00,61.8,32.4,30.00,NNW,328,5.0,9.0,33,0.00,,,0.02,18,WeatherCatV1.21B27,2013-10-06 23:36:00,
2013-10-06 18:38:00,61.6,33.0,30.00,NW,323,6.0,10.0,34,0.00,,,0.02,18,WeatherCatV1.21B27,2013-10-06 23:38:00,
2013-10-06 18:39:00,61.5,32.9,30.00,NW,324,0.0,10.0,34,0.00,,,0.02,16,WeatherCatV1.21B27,2013-10-06 23:39:00,
2013-10-06 18:40:00,61.4,32.8,30.00,WNW,298,6.0,12.0,34,0.00,,,0.02,14,WeatherCatV1.21B27,2013-10-06 23:40:00,
2013-10-06 18:42:00,61.2,32.6,30.00,NW,320,3.0,12.0,34,0.00,,,0.02,14,WeatherCatV1.21B27,2013-10-06 23:42:00,
2013-10-06 18:43:00,61.1,32.5,30.00,NNW,336,6.0,13.0,34,0.00,,,0.02,14,WeatherCatV1.21B27,2013-10-06 23:43:00,
2013-10-06 18:45:00,61.0,33.2,30.00,NW,318,3.0,11.0,35,0.00,,,0.02,12,WeatherCatV1.21B27,2013-10-06 23:45:00,
2013-10-06 18:46:00,60.9,33.1,30.00,NW,318,0.0,7.0,35,0.00,,,0.02,12,WeatherCatV1.21B27,2013-10-06 23:46:00,
2013-10-06 18:47:00,60.8,33.0,30.00,NW,322,5.0,12.0,35,0.00,,,0.02,12,WeatherCatV1.21B27,2013-10-06 23:47:00,
2013-10-06 18:48:00,60.7,32.9,30.00,NNW,334,2.0,12.0,35,0.00,,,0.02,11,WeatherCatV1.21B27,2013-10-06 23:48:00,
2013-10-06 18:50:00,60.5,33.4,30.00,NNW,347,5.0,9.0,36,0.00,,,0.02,11,WeatherCatV1.21B27,2013-10-06 23:50:00,
2013-10-06 18:51:00,60.5,33.4,30.01,NW,323,4.0,9.0,36,0.00,,,0.02,11,WeatherCatV1.21B27,2013-10-06 23:51:00,
2013-10-06 18:52:00,60.4,33.3,30.01,NW,326,2.0,7.0,36,0.00,,,0.02,11,WeatherCatV1.21B27,2013-10-06 23:52:00,
2013-10-06 18:53:00,60.3,33.2,30.01,WNW,297,6.0,10.0,36,0.00,,,0.02,11,WeatherCatV1.21B27,2013-10-06 23:53:00,
2013-10-06 18:54:00,60.3,33.2,30.01,NNW,331,7.0,10.0,36,0.00,,,0.02,11,WeatherCatV1.21B27,2013-10-06 23:54:00,
2013-10-06 18:55:00,60.2,33.2,30.01,NNW,338,3.0,11.0,36,0.00,,,0.02,9,WeatherCatV1.21B27,2013-10-06 23:55:00,
2013-10-06 18:56:00,60.3,33.2,30.01,NW,319,7.0,11.0,36,0.00,,,0.02,9,WeatherCatV1.21B27,2013-10-06 23:56:00,
2013-10-06 18:57:00,60.2,33.2,30.01,NW,322,10.0,10.0,36,0.00,,,0.02,9,WeatherCatV1.21B27,2013-10-06 23:57:00,
2013-10-06 18:58:00,60.1,33.1,30.01,NNW,327,3.0,10.0,36,0.00,,,0.02,9,WeatherCatV1.21B27,2013-10-06 23:58:00,
2013-10-06 19:00:00,60.0,33.0,30.01,NW,310,6.0,11.0,36,0.00,,,0.02,7,WeatherCatV1.21B27,2013-10-07 00:00:00,
2013-10-06 19:01:00,60.0,33.7,30.01,NW,312,5.0,11.0,37,0.00,,,0.02,7,WeatherCatV1.21B27,2013-10-07 00:01:00,
2013-10-06 19:02:00,59.9,32.9,30.01,NW,317,7.0,11.0,36,0.00,,,0.02,7,WeatherCatV1.21B27,2013-10-07 00:02:00,
2013-10-06 19:04:00,59.9,33.6,30.01,NNW,348,3.0,9.0,37,0.00,,,0.02,7,WeatherCatV1.21B27,2013-10-07 00:04:00,
2013-10-06 19:05:00,59.8,33.5,30.01,North,349,4.0,9.0,37,0.00,,,0.02,5,WeatherCatV1.21B27,2013-10-07 00:05:00,
2013-10-06 19:06:00,59.7,34.0,30.01,NNW,337,0.0,6.0,38,0.00,,,0.02,5,WeatherCatV1.21B27,2013-10-07 00:06:00,
2013-10-06 19:07:00,59.6,33.3,30.01,NNW,331,4.0,5.0,37,0.00,,,0.02,5,WeatherCatV1.21B27,2013-10-07 00:07:00,
2013-10-06 19:09:00,59.5,33.9,30.01,NNW,332,2.0,6.0,38,0.00,,,0.02,5,WeatherCatV1.21B27,2013-10-07 00:09:00,
2013-10-06 19:10:00,59.3,33.7,30.01,NNW,336,5.0,7.0,38,0.00,,,0.02,0,WeatherCatV1.21B27,2013-10-07 00:10:00,
2013-10-06 19:11:00,59.1,33.5,30.01,NNW,329,4.0,9.0,38,0.00,,,0.02,0,WeatherCatV1.21B27,2013-10-07 00:11:00,
2013-10-06 19:12:00,59.1,33.5,30.01,NNW,329,4.0,9.0,38,0.00,,,0.02,0,WeatherCatV1.21B27,2013-10-07 00:12:00,
2013-10-06 19:13:00,59.0,33.4,30.01,NNW,330,5.0,10.0,38,0.00,,,0.02,0,WeatherCatV1.21B27,2013-10-07 00:13:00,
2013-10-06 19:14:00,59.0,33.4,30.01,NW,324,6.0,10.0,38,0.00,,,0.02,0,WeatherCatV1.21B27,2013-10-07 00:14:00,
2013-10-06 19:16:00,59.0,33.4,30.01,NW,320,2.0,7.0,38,0.00,,,0.02,0,WeatherCatV1.21B27,2013-10-07 00:16:00,
2013-10-06 19:17:00,59.0,33.4,30.01,NNW,333,3.0,10.0,38,0.00,,,0.02,0,WeatherCatV1.21B27,2013-10-07 00:17:00,
2013-10-06 19:18:00,59.0,33.4,30.01,NNW,327,5.0,10.0,38,0.00,,,0.02,0,WeatherCatV1.21B27,2013-10-07 00:18:00,
2013-10-06 19:19:00,59.0,34.1,30.01,NW,317,9.0,9.0,39,0.00,,,0.02,0,WeatherCatV1.21B27,2013-10-07 00:19:00,
2013-10-06 19:21:00,59.0,34.1,30.01,NW,321,3.0,8.0,39,0.00,,,0.02,0,WeatherCatV1.21B27,2013-10-07 00:21:00,
2013-10-06 19:22:00,59.0,34.1,30.01,NW,323,5.0,8.0,39,0.00,,,0.02,0,WeatherCatV1.21B27,2013-10-07 00:22:00,
2013-10-06 19:23:00,58.9,34.0,30.01,NW,319,4.0,8.0,39,0.00,,,0.02,0,WeatherCatV1.21B27,2013-10-07 00:23:00,
2013-10-06 19:24:00,58.8,33.9,30.01,NW,324,1.0,7.0,39,0.00,,,0.02,0,WeatherCatV1.21B27,2013-10-07 00:24:00,
2013-10-06 19:26:00,58.6,33.7,30.01,NW,321,3.0,11.0,39,0.00,,,0.02,0,WeatherCatV1.21B27,2013-10-07 00:26:00,
2013-10-06 19:27:00,58.6,33.7,30.01,NW,322,4.0,11.0,39,0.00,,,0.02,0,WeatherCatV1.21B27,2013-10-07 00:27:00,
2013-10-06 19:28:00,58.6,33.7,30.01,NW,319,2.0,9.0,39,0.00,,,0.02,0,WeatherCatV1.21B27,2013-10-07 00:28:00,
2013-10-06 19:29:00,58.6,33.7,30.01,NW,316,3.0,9.0,39,0.00,,,0.02,0,WeatherCatV1.21B27,2013-10-07 00:29:00,
2013-10-06 19:32:00,58.4,34.2,30.01,NW,321,6.0,9.0,40,0.00,,,0.02,0,WeatherCatV1.21B27,2013-10-07 00:32:00,
2013-10-06 19:33:00,58.4,34.2,30.01,NNW,333,6.0,9.0,40,0.00,,,0.02,0,WeatherCatV1.21B27,2013-10-07 00:33:00,
2013-10-06 19:34:00,58.3,34.1,30.01,NNW,333,1.0,3.0,40,0.00,,,0.02,0,WeatherCatV1.21B27,2013-10-07 00:34:00,
2013-10-06 19:37:00,58.0,33.8,30.02,NNW,334,2.0,5.0,40,0.00,,,0.02,0,WeatherCatV1.21B27,2013-10-07 00:37:00,
2013-10-06 19:38:00,58.0,33.8,30.02,NNW,334,3.0,5.0,40,0.00,,,0.02,0,WeatherCatV1.21B27,2013-10-07 00:38:00,
2013-10-06 19:40:00,57.8,34.2,30.02,NNW,333,3.0,6.0,41,0.00,,,0.02,0,WeatherCatV1.21B27,2013-10-07 00:40:00,
2013-10-06 19:42:00,57.7,34.2,30.02,NW,323,2.0,7.0,41,0.00,,,0.02,0,WeatherCatV1.21B27,2013-10-07 00:42:00,
2013-10-06 19:43:00,57.7,34.2,30.02,NW,307,9.0,9.0,41,0.00,,,0.02,0,WeatherCatV1.21B27,2013-10-07 00:43:00,
2013-10-06 19:45:00,57.7,34.2,30.02,North,351,1.0,10.0,41,0.00,,,0.02,0,WeatherCatV1.21B27,2013-10-07 00:45:00,
2013-10-06 19:46:00,57.7,34.2,30.02,NNW,331,5.0,6.0,41,0.00,,,0.02,0,WeatherCatV1.21B27,2013-10-07 00:46:00,
2013-10-06 19:48:00,57.7,34.2,30.02,NW,319,5.0,6.0,41,0.00,,,0.02,0,WeatherCatV1.21B27,2013-10-07 00:48:00,
2013-10-06 19:50:00,57.7,34.8,30.02,NNW,333,4.0,6.0,42,0.00,,,0.02,0,WeatherCatV1.21B27,2013-10-07 00:50:00,
2013-10-06 19:51:00,57.6,34.7,30.02,NW,318,9.0,9.0,42,0.00,,,0.02,0,WeatherCatV1.21B27,2013-10-07 00:51:00,
2013-10-06 19:53:00,57.6,34.1,30.03,NW,326,4.0,9.0,41,0.00,,,0.02,0,WeatherCatV1.21B27,2013-10-07 00:53:00,
2013-10-06 19:54:00,57.6,34.1,30.03,NW,325,1.0,6.0,41,0.00,,,0.02,0,WeatherCatV1.21B27,2013-10-07 00:54:00,
2013-10-06 19:55:00,57.6,34.7,30.03,NW,325,6.0,6.0,42,0.00,,,0.02,0,WeatherCatV1.21B27,2013-10-07 00:55:00,
2013-10-06 19:56:00,57.6,34.7,30.03,NW,319,2.0,9.0,42,0.00,,,0.02,0,WeatherCatV1.21B27,2013-10-07 00:56:00,
2013-10-06 19:58:00,57.5,34.6,30.03,NW,315,3.0,6.0,42,0.00,,,0.02,0,WeatherCatV1.21B27,2013-10-07 00:58:00,
2013-10-06 19:59:00,57.4,34.5,30.03,NW,317,5.0,11.0,42,0.00,,,0.02,0,WeatherCatV1.21B27,2013-10-07 00:59:00,
2013-10-06 20:00:00,57.3,34.4,30.03,NW,319,0.0,11.0,42,0.00,,,0.02,0,WeatherCatV1.21B27,2013-10-07 01:00:00,
2013-10-06 20:01:00,57.2,34.3,30.03,NW,317,0.0,6.0,42,0.00,,,0.02,0,WeatherCatV1.21B27,2013-10-07 01:01:00,
2013-10-06 20:03:00,57.1,34.8,30.03,NW,318,3.0,4.0,43,0.00,,,0.02,0,WeatherCatV1.21B27,2013-10-07 01:03:00,
2013-10-06 20:04:00,57.0,34.7,30.03,NW,320,5.0,7.0,43,0.00,,,0.02,0,WeatherCatV1.21B27,2013-10-07 01:04:00,
2013-10-06 20:06:00,56.9,34.6,30.03,NW,315,4.0,8.0,43,0.00,,,0.02,0,WeatherCatV1.21B27,2013-10-07 01:06:00,
2013-10-06 20:07:00,56.8,34.5,30.03,NNW,330,4.0,8.0,43,0.00,,,0.02,0,WeatherCatV1.21B27,2013-10-07 01:07:00,
2013-10-06 20:08:00,56.8,34.5,30.03,NW,321,10.0,10.0,43,0.00,,,0.02,0,WeatherCatV1.21B27,2013-10-07 01:08:00,
2013-10-06 20:09:00,56.8,34.5,30.03,NW,323,0.0,10.0,43,0.00,,,0.02,0,WeatherCatV1.21B27,2013-10-07 01:09:00,
2013-10-06 20:11:00,56.7,34.5,30.03,NW,325,7.0,11.0,43,0.00,,,0.02,0,WeatherCatV1.21B27,2013-10-07 01:11:00,
2013-10-06 20:12:00,56.7,34.5,30.03,NW,321,2.0,8.0,43,0.00,,,0.02,0,WeatherCatV1.21B27,2013-10-07 01:12:00,
2013-10-06 20:13:00,56.7,35.0,30.03,NW,321,2.0,4.0,44,0.00,,,0.02,0,WeatherCatV1.21B27,2013-10-07 01:13:00,
2013-10-06 20:14:00,56.7,35.0,30.03,NW,321,0.0,3.0,44,0.00,,,0.02,0,WeatherCatV1.21B27,2013-10-07 01:14:00,
2013-10-06 20:16:00,56.5,34.8,30.03,NW,323,3.0,6.0,44,0.00,,,0.02,0,WeatherCatV1.21B27,2013-10-07 01:16:00,
2013-10-06 20:17:00,56.4,34.8,30.03,NW,322,2.0,3.0,44,0.00,,,0.02,0,WeatherCatV1.21B27,2013-10-07 01:17:00,
2013-10-06 20:18:00,56.3,35.2,30.03,NW,325,0.0,4.0,45,0.00,,,0.02,0,WeatherCatV1.21B27,2013-10-07 01:18:00,
2013-10-06 20:19:00,56.3,35.2,30.03,NW,325,0.0,4.0,45,0.00,,,0.02,0,WeatherCatV1.21B27,2013-10-07 01:19:00,
2013-10-06 20:21:00,56.1,35.0,30.03,NNW,327,3.0,5.0,45,0.00,,,0.02,0,WeatherCatV1.21B27,2013-10-07 01:21:00,
2013-10-06 20:22:00,56.0,35.0,30.03,NNW,327,2.0,5.0,45,0.00,,,0.02,0,WeatherCatV1.21B27,2013-10-07 01:22:00,
2013-10-06 20:23:00,55.9,34.9,30.03,NW,309,4.0,9.0,45,0.00,,,0.02,0,WeatherCatV1.21B27,2013-10-07 01:23:00,
2013-10-06 20:24:00,55.9,34.9,30.03,NNW,329,6.0,9.0,45,0.00,,,0.02,0,WeatherCatV1.21B27,2013-10-07 01:24:00,
2013-10-06 20:27:00,55.8,34.8,30.03,NNW,336,4.0,7.0,45,0.00,,,0.02,0,WeatherCatV1.21B27,2013-10-07 01:27:00,
2013-10-06 20:28:00,55.8,34.8,30.03,NNW,341,3.0,5.0,45,0.00,,,0.02,0,WeatherCatV1.21B27,2013-10-07 01:28:00,
2013-10-06 20:29:00,55.7,34.7,30.03,NNW,341,2.0,5.0,45,0.00,,,0.02,0,WeatherCatV1.21B27,2013-10-07 01:29:00,
2013-10-06 20:31:00,55.6,34.6,30.03,WNW,291,5.0,7.0,45,0.00,,,0.02,0,WeatherCatV1.21B27,2013-10-07 01:31:00,
2013-10-06 20:34:00,55.5,35.1,30.03,WNW,291,0.0,2.0,46,0.00,,,0.02,0,WeatherCatV1.21B27,2013-10-07 01:34:00,
2013-10-06 20:35:00,55.5,35.1,30.03,West,276,5.0,8.0,46,0.00,,,0.02,0,WeatherCatV1.21B27,2013-10-07 01:35:00,
2013-10-06 20:37:00,55.3,34.9,30.04,WNW,289,3.0,3.0,46,0.00,,,0.02,0,WeatherCatV1.21B27,2013-10-07 01:37:00,
2013-10-06 20:39:00,55.2,34.8,30.04,NW,320,1.0,9.0,46,0.00,,,0.02,0,WeatherCatV1.21B27,2013-10-07 01:39:00,
2013-10-06 20:40:00,55.2,34.8,30.04,NW,320,2.0,9.0,46,0.00,,,0.02,0,WeatherCatV1.21B27,2013-10-07 01:40:00,
2013-10-06 20:42:00,55.1,34.7,30.04,NW,325,4.0,5.0,46,0.00,,,0.02,0,WeatherCatV1.21B27,2013-10-07 01:42:00,
2013-10-06 20:44:00,55.0,34.6,30.04,NNW,334,0.0,5.0,46,0.00,,,0.02,0,WeatherCatV1.21B27,2013-10-07 01:44:00,
2013-10-06 20:45:00,54.9,35.0,30.04,NNW,334,2.0,2.0,47,0.00,,,0.02,0,WeatherCatV1.21B27,2013-10-07 01:45:00,
2013-10-06 20:46:00,54.9,34.5,30.04,WNW,299,9.0,9.0,46,0.00,,,0.02,0,WeatherCatV1.21B27,2013-10-07 01:46:00,
2013-10-06 20:47:00,54.8,34.4,30.04,NW,323,2.0,9.0,46,0.00,,,0.02,0,WeatherCatV1.21B27,2013-10-07 01:47:00,
2013-10-06 20:49:00,54.7,34.9,30.04,NW,323,0.0,3.0,47,0.00,,,0.02,0,WeatherCatV1.21B27,2013-10-07 01:49:00,
2013-10-06 20:50:00,54.6,34.8,30.04,NW,323,5.0,8.0,47,0.00,,,0.02,0,WeatherCatV1.21B27,2013-10-07 01:50:00,
2013-10-06 20:51:00,54.6,34.8,30.04,NW,323,3.0,8.0,47,0.00,,,0.02,0,WeatherCatV1.21B27,2013-10-07 01:51:00,
2013-10-06 20:52:00,54.6,34.8,30.04,NW,323,1.0,10.0,47,0.00,,,0.02,0,WeatherCatV1.21B27,2013-10-07 01:52:00,
2013-10-06 20:54:00,54.5,34.7,30.04,NW,322,2.0,5.0,47,0.00,,,0.02,0,WeatherCatV1.21B27,2013-10-07 01:54:00,
2013-10-06 20:56:00,54.5,34.7,30.04,NW,325,5.0,6.0,47,0.00,,,0.02,0,WeatherCatV1.21B27,2013-10-07 01:56:00,
2013-10-06 20:57:00,54.5,35.2,30.04,NW,316,5.0,7.0,48,0.00,,,0.02,0,WeatherCatV1.21B27,2013-10-07 01:57:00,
2013-10-06 20:59:00,54.4,35.1,30.04,NNW,328,1.0,6.0,48,0.00,,,0.02,0,WeatherCatV1.21B27,2013-10-07 01:59:00,
2013-10-06 21:00:00,54.4,35.1,30.04,NNW,329,5.0,6.0,48,0.00,,,0.02,0,WeatherCatV1.21B27,2013-10-07 02:00:00,
2013-10-06 21:01:00,54.3,35.0,30.05,NNW,329,1.0,6.0,48,0.00,,,0.02,0,WeatherCatV1.21B27,2013-10-07 02:01:00,
2013-10-06 21:02:00,54.3,35.0,30.04,NNW,329,2.0,3.0,48,0.00,,,0.02,0,WeatherCatV1.21B27,2013-10-07 02:02:00,
2013-10-06 21:05:00,54.3,35.0,30.04,NNW,336,1.0,5.0,48,0.00,,,0.02,0,WeatherCatV1.21B27,2013-10-07 02:05:00,
2013-10-06 21:06:00,54.2,35.5,30.05,NNW,336,0.0,3.0,49,0.00,,,0.02,0,WeatherCatV1.21B27,2013-10-07 02:06:00,
2013-10-06 21:07:00,54.1,35.4,30.05,NNW,336,0.0,2.0,49,0.00,,,0.02,0,WeatherCatV1.21B27,2013-10-07 02:07:00,
2013-10-06 21:10:00,54.0,35.3,30.05,NNW,335,7.0,7.0,49,0.00,,,0.02,0,WeatherCatV1.21B27,2013-10-07 02:10:00,
2013-10-06 21:11:00,53.9,35.2,30.05,NNW,331,2.0,7.0,49,0.00,,,0.02,0,WeatherCatV1.21B27,2013-10-07 02:11:00,
2013-10-06 21:12:00,53.9,35.2,30.05,NNW,330,0.0,2.0,49,0.00,,,0.02,0,WeatherCatV1.21B27,2013-10-07 02:12:00,
2013-10-06 21:13:00,53.8,35.1,30.05,NNW,329,5.0,7.0,49,0.00,,,0.02,0,WeatherCatV1.21B27,2013-10-07 02:13:00,
2013-10-06 21:15:00,53.8,35.1,30.05,NW,317,5.0,7.0,49,0.00,,,0.02,0,WeatherCatV1.21B27,2013-10-07 02:15:00,
2013-10-06 21:16:00,53.8,35.1,30.05,NW,322,5.0,6.0,49,0.00,,,0.02,0,WeatherCatV1.21B27,2013-10-07 02:16:00,
2013-10-06 21:17:00,53.8,35.1,30.05,NW,323,3.0,6.0,49,0.00,,,0.02,0,WeatherCatV1.21B27,2013-10-07 02:17:00,
2013-10-06 21:18:00,53.8,35.1,30.05,NNW,338,6.0,11.0,49,0.00,,,0.02,0,WeatherCatV1.21B27,2013-10-07 02:18:00,
2013-10-06 21:20:00,53.9,35.2,30.05,NW,319,2.0,11.0,49,0.00,,,0.02,0,WeatherCatV1.21B27,2013-10-07 02:20:00,
2013-10-06 21:21:00,53.9,35.2,30.05,NW,318,2.0,5.0,49,0.00,,,0.02,0,WeatherCatV1.21B27,2013-10-07 02:21:00,
2013-10-06 21:22:00,53.9,35.2,30.05,NW,318,4.0,4.0,49,0.00,,,0.02,0,WeatherCatV1.21B27,2013-10-07 02:22:00,
2013-10-06 21:23:00,53.9,35.2,30.05,NW,319,2.0,4.0,49,0.00,,,0.02,0,WeatherCatV1.21B27,2013-10-07 02:23:00,
2013-10-06 21:25:00,53.9,35.2,30.05,NW,311,6.0,7.0,49,0.00,,,0.02,0,WeatherCatV1.21B27,2013-10-07 02:25:00,
2013-10-06 21:26:00,53.9,35.2,30.05,NW,319,8.0,10.0,49,0.00,,,0.02,0,WeatherCatV1.21B27,2013-10-07 02:26:00,
2013-10-06 21:27:00,53.8,35.1,30.05,NW,321,5.0,10.0,49,0.00,,,0.02,0,WeatherCatV1.21B27,2013-10-07 02:27:00,
2013-10-06 21:28:00,53.9,35.2,30.05,NNW,333,5.0,12.0,49,0.00,,,0.02,0,WeatherCatV1.21B27,2013-10-07 02:28:00,
2013-10-06 21:29:00,53.9,35.2,30.05,NNW,333,2.0,12.0,49,0.00,,,0.02,0,WeatherCatV1.21B27,2013-10-07 02:29:00,
2013-10-06 21:30:00,54.0,35.3,30.06,NW,325,3.0,6.0,49,0.00,,,0.02,0,WeatherCatV1.21B27,2013-10-07 02:30:00,
2013-10-06 21:31:00,54.0,35.3,30.05,NW,326,4.0,5.0,49,0.00,,,0.02,0,WeatherCatV1.21B27,2013-10-07 02:31:00,
2013-10-06 21:32:00,54.0,35.3,30.05,NW,326,2.0,5.0,49,0.00,,,0.02,0,WeatherCatV1.21B27,2013-10-07 02:32:00,
2013-10-06 21:33:00,53.9,35.2,30.06,NW,325,0.0,5.0,49,0.00,,,0.02,0,WeatherCatV1.21B27,2013-10-07 02:33:00,
2013-10-06 21:34:00,53.9,35.2,30.06,NNW,336,8.0,9.0,49,0.00,,,0.02,0,WeatherCatV1.21B27,2013-10-07 02:34:00,
2013-10-06 21:36:00,53.8,35.1,30.06,NW,322,4.0,6.0,49,0.00,,,0.02,0,WeatherCatV1.21B27,2013-10-07 02:36:00,
2013-10-06 21:37:00,53.8,35.1,30.06,NW,314,2.0,5.0,49,0.00,,,0.02,0,WeatherCatV1.21B27,2013-10-07 02:37:00,
2013-10-06 21:38:00,53.7,35.0,30.06,NW,317,4.0,7.0,49,0.00,,,0.02,0,WeatherCatV1.21B27,2013-10-07 02:38:00,
2013-10-06 21:39:00,53.7,35.5,30.06,NNW,333,4.0,7.0,50,0.00,,,0.02,0,WeatherCatV1.21B27,2013-10-07 02:39:00,
2013-10-06 21:41:00,53.5,35.3,30.06,NNW,330,3.0,5.0,50,0.00,,,0.02,0,WeatherCatV1.21B27,2013-10-07 02:41:00,
2013-10-06 21:42:00,53.4,35.2,30.06,NW,321,1.0,6.0,50,0.00,,,0.02,0,WeatherCatV1.21B27,2013-10-07 02:42:00,
2013-10-06 21:43:00,53.4,35.2,30.06,NW,318,0.0,6.0,50,0.00,,,0.02,0,WeatherCatV1.21B27,2013-10-07 02:43:00,
2013-10-06 21:44:00,53.3,35.1,30.06,NNW,327,3.0,8.0,50,0.00,,,0.02,0,WeatherCatV1.21B27,2013-10-07 02:44:00,
2013-10-06 21:46:00,53.3,35.1,30.06,NNW,337,6.0,6.0,50,0.00,,,0.02,0,WeatherCatV1.21B27,2013-10-07 02:46:00,
2013-10-06 21:47:00,53.2,35.5,30.06,NNW,336,1.0,6.0,51,0.00,,,0.02,0,WeatherCatV1.21B27,2013-10-07 02:47:00,
2013-10-06 21:48:00,53.2,35.5,30.06,NNW,336,2.0,6.0,51,0.00,,,0.02,0,WeatherCatV1.21B27,2013-10-07 02:48:00,
2013-10-06 21:49:00,53.1,35.0,30.06,West,279,4.0,9.0,50,0.00,,,0.02,0,WeatherCatV1.21B27,2013-10-07 02:49:00,
2013-10-06 21:51:00,53.0,35.4,30.06,WNW,284,4.0,4.0,51,0.00,,,0.02,0,WeatherCatV1.21B27,2013-10-07 02:51:00,
2013-10-06 21:52:00,53.0,35.4,30.06,WNW,284,2.0,5.0,51,0.00,,,0.02,0,WeatherCatV1.21B27,2013-10-07 02:52:00,
2013-10-06 21:53:00,52.9,35.3,30.06,WNW,284,3.0,5.0,51,0.00,,,0.02,0,WeatherCatV1.21B27,2013-10-07 02:53:00,
2013-10-06 21:54:00,52.8,35.2,30.06,WNW,286,2.0,6.0,51,0.00,,,0.02,0,WeatherCatV1.21B27,2013-10-07 02:54:00,
2013-10-06 21:56:00,52.7,35.6,30.06,WNW,300,2.0,6.0,52,0.00,,,0.02,0,WeatherCatV1.21B27,2013-10-07 02:56:00,
2013-10-06 21:57:00,52.6,35.5,30.06,WNW,300,2.0,6.0,52,0.00,,,0.02,0,WeatherCatV1.21B27,2013-10-07 02:57:00,
2013-10-06 21:58:00,52.6,35.5,30.07,WNW,300,0.0,6.0,52,0.00,,,0.02,0,WeatherCatV1.21B27,2013-10-07 02:58:00,
2013-10-06 21:59:00,52.5,35.4,30.06,WNW,299,0.0,4.0,52,0.00,,,0.02,0,WeatherCatV1.21B27,2013-10-07 02:59:00,
2013-10-06 22:01:00,52.4,35.3,30.07,WNW,299,2.0,4.0,52,0.00,,,0.02,0,WeatherCatV1.21B27,2013-10-07 03:01:00,
2013-10-06 22:02:00,52.3,35.2,30.07,WNW,300,4.0,4.0,52,0.00,,,0.02,0,WeatherCatV1.21B27,2013-10-07 03:02:00,
2013-10-06 22:03:00,52.2,35.1,30.07,NW,311,2.0,9.0,52,0.00,,,0.02,0,WeatherCatV1.21B27,2013-10-07 03:03:00,
2013-10-06 22:04:00,52.2,35.1,30.07,NW,311,2.0,9.0,52,0.00,,,0.02,0,WeatherCatV1.21B27,2013-10-07 03:04:00,
2013-10-06 22:07:00,52.1,35.5,30.07,NW,315,0.0,5.0,53,0.00,,,0.02,0,WeatherCatV1.21B27,2013-10-07 03:07:00,
2013-10-06 22:09:00,52.0,35.4,30.07,NW,315,2.0,6.0,53,0.00,,,0.02,0,WeatherCatV1.21B27,2013-10-07 03:09:00,
2013-10-06 22:12:00,51.8,35.7,30.07,NW,304,5.0,5.0,54,0.00,,,0.02,0,WeatherCatV1.21B27,2013-10-07 03:12:00,
2013-10-06 22:13:00,51.7,35.6,30.07,WNW,298,6.0,6.0,54,0.00,,,0.02,0,WeatherCatV1.21B27,2013-10-07 03:13:00,
2013-10-06 22:14:00,51.6,35.5,30.07,WNW,298,0.0,6.0,54,0.00,,,0.02,0,WeatherCatV1.21B27,2013-10-07 03:14:00,
2013-10-06 22:15:00,51.5,35.9,30.07,WNW,298,1.0,1.0,55,0.00,,,0.02,0,WeatherCatV1.21B27,2013-10-07 03:15:00,
2013-10-06 22:17:00,51.2,35.6,30.07,WNW,298,0.0,2.0,55,0.00,,,0.02,0,WeatherCatV1.21B27,2013-10-07 03:17:00,
2013-10-06 22:18:00,51.2,35.6,30.07,WNW,298,0.0,2.0,55,0.00,,,0.02,0,WeatherCatV1.21B27,2013-10-07 03:18:00,
2013-10-06 22:19:00,51.0,35.9,30.07,WNW,298,2.0,2.0,56,0.00,,,0.02,0,WeatherCatV1.21B27,2013-10-07 03:19:00,
2013-10-06 22:20:00,50.9,35.8,30.07,WNW,298,0.0,2.0,56,0.00,,,0.02,0,WeatherCatV1.21B27,2013-10-07 03:20:00,
2013-10-06 22:21:00,50.8,35.7,30.07,WNW,298,1.0,2.0,56,0.00,,,0.02,0,WeatherCatV1.21B27,2013-10-07 03:21:00,
2013-10-06 22:22:00,50.6,35.5,30.07,WNW,298,0.0,2.0,56,0.00,,,0.02,0,WeatherCatV1.21B27,2013-10-07 03:22:00,
2013-10-06 22:23:00,50.6,35.5,30.07,WNW,298,0.0,2.0,56,0.00,,,0.02,0,WeatherCatV1.21B27,2013-10-07 03:23:00,
2013-10-06 22:24:00,50.3,35.7,30.07,WNW,298,1.0,3.0,57,0.00,,,0.02,0,WeatherCatV1.21B27,2013-10-07 03:24:00,
2013-10-06 22:25:00,50.3,35.7,30.07,WNW,298,0.0,3.0,57,0.00,,,0.02,0,WeatherCatV1.21B27,2013-10-07 03:25:00,
2013-10-06 22:26:00,50.1,35.5,30.07,WNW,298,0.0,2.0,57,0.00,,,0.02,0,WeatherCatV1.21B27,2013-10-07 03:26:00,
2013-10-06 22:28:00,50.0,35.8,30.07,WNW,298,0.0,0.0,58,0.00,,,0.02,0,WeatherCatV1.21B27,2013-10-07 03:28:00,
2013-10-06 22:29:00,49.8,35.6,30.07,WNW,298,0.0,0.0,58,0.00,,,0.02,0,WeatherCatV1.21B27,2013-10-07 03:29:00,
2013-10-06 22:30:00,49.7,35.5,30.07,WNW,298,1.0,2.0,58,0.00,,,0.02,0,WeatherCatV1.21B27,2013-10-07 03:30:00,
2013-10-06 22:31:00,49.6,35.9,30.07,WNW,298,0.0,2.0,59,0.00,,,0.02,0,WeatherCatV1.21B27,2013-10-07 03:31:00,
2013-10-06 22:33:00,49.4,35.7,30.07,WNW,298,0.0,2.0,59,0.00,,,0.02,0,WeatherCatV1.21B27,2013-10-07 03:33:00,
2013-10-06 22:34:00,49.2,35.9,30.07,WNW,298,0.0,4.0,60,0.00,,,0.02,0,WeatherCatV1.21B27,2013-10-07 03:34:00,
2013-10-06 22:35:00,49.1,35.8,30.07,WNW,298,0.0,4.0,60,0.00,,,0.02,0,WeatherCatV1.21B27,2013-10-07 03:35:00,
2013-10-06 22:36:00,49.1,35.8,30.07,WNW,298,3.0,3.0,60,0.00,,,0.02,0,WeatherCatV1.21B27,2013-10-07 03:36:00,
2013-10-06 22:38:00,48.9,35.6,30.07,WNW,298,0.0,3.0,60,0.00,,,0.02,0,WeatherCatV1.21B27,2013-10-07 03:38:00,
2013-10-06 22:39:00,48.8,35.5,30.07,WNW,298,0.0,2.0,60,0.00,,,0.02,0,WeatherCatV1.21B27,2013-10-07 03:39:00,
2013-10-06 22:40:00,48.7,35.9,30.07,WNW,298,1.0,1.0,61,0.00,,,0.02,0,WeatherCatV1.21B27,2013-10-07 03:40:00,
2013-10-06 22:41:00,48.7,35.9,30.07,WNW,298,1.0,2.0,61,0.00,,,0.02,0,WeatherCatV1.21B27,2013-10-07 03:41:00,
2013-10-06 22:42:00,48.6,35.8,30.07,WNW,298,0.0,3.0,61,0.00,,,0.02,0,WeatherCatV1.21B27,2013-10-07 03:42:00,
2013-10-06 22:43:00,48.6,35.8,30.07,WNW,298,0.0,3.0,61,0.00,,,0.02,0,WeatherCatV1.21B27,2013-10-07 03:43:00,
2013-10-06 22:45:00,48.4,35.6,30.07,WNW,298,3.0,3.0,61,0.00,,,0.02,0,WeatherCatV1.21B27,2013-10-07 03:45:00,
2013-10-06 22:46:00,48.4,36.0,30.07,WNW,298,0.0,4.0,62,0.00,,,0.02,0,WeatherCatV1.21B27,2013-10-07 03:46:00,
2013-10-06 22:47:00,48.3,35.9,30.07,WNW,298,1.0,4.0,62,0.00,,,0.02,0,WeatherCatV1.21B27,2013-10-07 03:47:00,
2013-10-06 22:48:00,48.2,35.8,30.07,WNW,298,1.0,1.0,62,0.00,,,0.02,0,WeatherCatV1.21B27,2013-10-07 03:48:00,
2013-10-06 22:50:00,48.1,35.7,30.07,WNW,298,0.0,2.0,62,0.00,,,0.02,0,WeatherCatV1.21B27,2013-10-07 03:50:00,
2013-10-06 22:51:00,48.0,35.6,30.08,WNW,298,1.0,1.0,62,0.00,,,0.02,0,WeatherCatV1.21B27,2013-10-07 03:51:00,
2013-10-06 22:52:00,47.9,35.5,30.08,WNW,298,0.0,1.0,62,0.00,,,0.02,0,WeatherCatV1.21B27,2013-10-07 03:52:00,
2013-10-06 22:53:00,47.9,35.5,30.07,WNW,298,0.0,4.0,62,0.00,,,0.02,0,WeatherCatV1.21B27,2013-10-07 03:53:00,
2013-10-06 22:55:00,47.8,35.4,30.08,WNW,298,2.0,4.0,62,0.00,,,0.02,0,WeatherCatV1.21B27,2013-10-07 03:55:00,
2013-10-06 22:57:00,47.8,35.8,30.07,WNW,298,0.0,1.0,63,0.00,,,0.02,0,WeatherCatV1.21B27,2013-10-07 03:57:00,
2013-10-06 22:58:00,47.8,35.8,30.07,WNW,298,0.0,1.0,63,0.00,,,0.02,0,WeatherCatV1.21B27,2013-10-07 03:58:00,
2013-10-06 23:00:00,47.8,35.8,30.07,WNW,298,3.0,3.0,63,0.00,,,0.02,0,WeatherCatV1.21B27,2013-10-07 04:00:00,
2013-10-06 23:01:00,47.7,35.7,30.07,WNW,298,3.0,3.0,63,0.00,,,0.02,0,WeatherCatV1.21B27,2013-10-07 04:01:00,
2013-10-06 23:02:00,47.7,35.7,30.07,WNW,298,1.0,3.0,63,0.00,,,0.02,0,WeatherCatV1.21B27,2013-10-07 04:02:00,
2013-10-06 23:06:00,47.8,35.8,30.07,WNW,298,0.0,2.0,63,0.00,,,0.02,0,WeatherCatV1.21B27,2013-10-07 04:06:00,
2013-10-06 23:07:00,47.8,35.8,30.07,WNW,298,2.0,2.0,63,0.00,,,0.02,0,WeatherCatV1.21B27,2013-10-07 04:07:00,
2013-10-06 23:11:00,47.7,35.7,30.07,WNW,298,0.0,0.0,63,0.00,,,0.02,0,WeatherCatV1.21B27,2013-10-07 04:11:00,
2013-10-06 23:12:00,47.7,35.7,30.07,WNW,298,1.0,3.0,63,0.00,,,0.02,0,WeatherCatV1.21B27,2013-10-07 04:12:00,
2013-10-06 23:16:00,47.5,35.5,30.07,WNW,298,0.0,2.0,63,0.00,,,0.02,0,WeatherCatV1.21B27,2013-10-07 04:16:00,
2013-10-06 23:17:00,47.5,35.5,30.07,WNW,298,0.0,2.0,63,0.00,,,0.02,0,WeatherCatV1.21B27,2013-10-07 04:17:00,
2013-10-06 23:21:00,47.2,35.7,30.07,WNW,298,0.0,1.0,64,0.00,,,0.02,0,WeatherCatV1.21B27,2013-10-07 04:21:00,
2013-10-06 23:22:00,47.2,35.7,30.07,WNW,298,2.0,2.0,64,0.00,,,0.02,0,WeatherCatV1.21B27,2013-10-07 04:22:00,
2013-10-06 23:23:00,47.1,35.6,30.07,WNW,298,0.0,2.0,64,0.00,,,0.02,0,WeatherCatV1.21B27,2013-10-07 04:23:00,
2013-10-06 23:26:00,46.9,35.8,30.07,WNW,298,1.0,3.0,65,0.00,,,0.02,0,WeatherCatV1.21B27,2013-10-07 04:26:00,
2013-10-06 23:27:00,46.9,35.8,30.07,WNW,298,0.0,3.0,65,0.00,,,0.02,0,WeatherCatV1.21B27,2013-10-07 04:27:00,
2013-10-06 23:28:00,46.9,35.8,30.07,WNW,298,0.0,3.0,65,0.00,,,0.02,0,WeatherCatV1.21B27,2013-10-07 04:28:00,
2013-10-06 23:31:00,46.8,35.7,30.07,WNW,298,1.0,5.0,65,0.00,,,0.02,0,WeatherCatV1.21B27,2013-10-07 04:31:00,
2013-10-06 23:32:00,46.8,35.7,30.07,WNW,298,1.0,3.0,65,0.00,,,0.02,0,WeatherCatV1.21B27,2013-10-07 04:32:00,
2013-10-06 23:33:00,46.8,35.7,30.07,WNW,298,0.0,4.0,65,0.00,,,0.02,0,WeatherCatV1.21B27,2013-10-07 04:33:00,
2013-10-06 23:34:00,46.7,35.6,30.07,WNW,298,0.0,4.0,65,0.00,,,0.02,0,WeatherCatV1.21B27,2013-10-07 04:34:00,
2013-10-06 23:36:00,46.7,35.6,30.07,WNW,298,0.0,2.0,65,0.00,,,0.02,0,WeatherCatV1.21B27,2013-10-07 04:36:00,
2013-10-06 23:37:00,46.8,35.7,30.07,WNW,298,2.0,2.0,65,0.00,,,0.02,0,WeatherCatV1.21B27,2013-10-07 04:37:00,
2013-10-06 23:38:00,46.8,35.7,30.07,WNW,298,1.0,2.0,65,0.00,,,0.02,0,WeatherCatV1.21B27,2013-10-07 04:38:00,
2013-10-06 23:39:00,46.8,35.7,30.07,WNW,298,1.0,4.0,65,0.00,,,0.02,0,WeatherCatV1.21B27,2013-10-07 04:39:00,
2013-10-06 23:41:00,46.8,35.7,30.07,WNW,298,0.0,3.0,65,0.00,,,0.02,0,WeatherCatV1.21B27,2013-10-07 04:41:00,
2013-10-06 23:42:00,46.7,36.0,30.07,WNW,298,1.0,1.0,66,0.00,,,0.02,0,WeatherCatV1.21B27,2013-10-07 04:42:00,
2013-10-06 23:44:00,46.7,36.0,30.07,WNW,298,0.0,1.0,66,0.00,,,0.02,0,WeatherCatV1.21B27,2013-10-07 04:44:00,
2013-10-06 23:46:00,46.7,36.0,30.07,WNW,298,3.0,6.0,66,0.00,,,0.02,0,WeatherCatV1.21B27,2013-10-07 04:46:00,
2013-10-06 23:47:00,46.7,36.0,30.07,WNW,298,0.0,3.0,66,0.00,,,0.02,0,WeatherCatV1.21B27,2013-10-07 04:47:00,
2013-10-06 23:48:00,46.7,36.0,30.07,WNW,298,3.0,3.0,66,0.00,,,0.02,0,WeatherCatV1.21B27,2013-10-07 04:48:00,
2013-10-06 23:49:00,46.8,36.0,30.07,WNW,298,2.0,4.0,66,0.00,,,0.02,0,WeatherCatV1.21B27,2013-10-07 04:49:00,
2013-10-06 23:51:00,46.9,36.1,30.07,WNW,298,2.0,4.0,66,0.00,,,0.02,0,WeatherCatV1.21B27,2013-10-07 04:51:00,
2013-10-06 23:53:00,46.9,35.8,30.07,WNW,298,0.0,4.0,65,0.00,,,0.02,0,WeatherCatV1.21B27,2013-10-07 04:53:00,
2013-10-06 23:54:00,47.0,36.2,30.07,WNW,298,4.0,4.0,66,0.00,,,0.02,0,WeatherCatV1.21B27,2013-10-07 04:54:00,
2013-10-06 23:55:00,47.0,36.2,30.07,WNW,298,2.0,4.0,66,0.00,,,0.02,0,WeatherCatV1.21B27,2013-10-07 04:55:00,
2013-10-06 23:56:00,47.0,35.8,30.07,WNW,298,2.0,5.0,65,0.00,,,0.02,0,WeatherCatV1.21B27,2013-10-07 04:56:00,
2013-10-06 23:58:00,47.1,36.0,30.07,WNW,298,2.0,5.0,65,0.00,,,0.02,0,WeatherCatV1.21B27,2013-10-07 04:58:00,